SIA306 WSSS-EGLL

Flight info

Callsign SIA306
Flight time 13h 49m
Altitude 30000
Route AROSO3A AROSO Y513 KALIL Y501 RINBA Y503 VPL P628 GIVAL/N0511F320 P628 PUKES/N0507F340 P628 RK G202 ZB L750 RANAH B449 MAMED/N0487F360 B449 ETRAP B447 KRS B143 TUNEK A909 RODAR M11 REBLO UM11 CRM UL746 ODERO DCT OPT/N0475F380 DCT SOKRU DCT BEGLA DCT DEXIT DCT INBED DCT BOMBI DCT ADKUV DCT SOGRI DCT DENUT L608 LOGAN
Aircraft B77W/H-SDE1E2E3FGHIJ2J3J4J5M1RWXY/LB1D1

Departure

Time 2026-05-07 00:47
Airport Singapore Changi Airport (WSSS)

Arrival

Time 2026-05-07 14:37
Airport London Heathrow Airport (EGLL)
Time Latitude Longitude Altitude Speed Heading
2026-05-06 23:32 1.36107 103.98749 44 ft 0 kts 112°
2026-05-07 00:32 1.36110 103.98743 43 ft 3 kts 112°
2026-05-07 00:33 1.36116 103.98727 41 ft 2 kts 112°
2026-05-07 00:33 1.36122 103.98714 40 ft 2 kts 112°
2026-05-07 00:33 1.36128 103.98700 39 ft 2 kts 123°
2026-05-07 00:33 1.36138 103.98689 37 ft 2 kts 145°
2026-05-07 00:34 1.36151 103.98682 36 ft 2 kts 162°
2026-05-07 00:34 1.36166 103.98679 36 ft 2 kts 179°
2026-05-07 00:34 1.36181 103.98680 35 ft 2 kts 197°
2026-05-07 00:34 1.36188 103.98682 35 ft 0 kts 204°
2026-05-07 00:35 1.36189 103.98683 35 ft 0 kts 204°
2026-05-07 00:36 1.36187 103.98682 35 ft 0 kts 204°
2026-05-07 00:37 1.36169 103.98674 36 ft 5 kts 204°
2026-05-07 00:37 1.36120 103.98652 36 ft 10 kts 208°
2026-05-07 00:37 1.36056 103.98586 35 ft 16 kts 239°
2026-05-07 00:37 1.35983 103.98504 34 ft 14 kts 212°
2026-05-07 00:38 1.35897 103.98463 35 ft 13 kts 202°
2026-05-07 00:38 1.35802 103.98423 34 ft 15 kts 204°
2026-05-07 00:38 1.35691 103.98374 32 ft 20 kts 202°
2026-05-07 00:38 1.35555 103.98318 31 ft 21 kts 203°
2026-05-07 00:39 1.35419 103.98261 30 ft 21 kts 203°
2026-05-07 00:39 1.35278 103.98201 26 ft 21 kts 202°
2026-05-07 00:39 1.35150 103.98147 30 ft 18 kts 203°
2026-05-07 00:39 1.35041 103.98101 35 ft 15 kts 203°
2026-05-07 00:40 1.34946 103.98062 40 ft 13 kts 202°
2026-05-07 00:40 1.34858 103.98024 41 ft 14 kts 204°
2026-05-07 00:40 1.34759 103.97983 41 ft 16 kts 193°
2026-05-07 00:40 1.34682 103.98043 40 ft 16 kts 113°
2026-05-07 00:41 1.34637 103.98148 41 ft 17 kts 113°
2026-05-07 00:41 1.34589 103.98261 41 ft 18 kts 112°
2026-05-07 00:41 1.34536 103.98386 39 ft 20 kts 113°
2026-05-07 00:41 1.34478 103.98521 36 ft 21 kts 112°
2026-05-07 00:42 1.34422 103.98651 36 ft 18 kts 112°
2026-05-07 00:42 1.34376 103.98762 37 ft 15 kts 113°
2026-05-07 00:42 1.34335 103.98855 37 ft 13 kts 117°
2026-05-07 00:42 1.34260 103.98881 36 ft 12 kts 193°
2026-05-07 00:43 1.34174 103.98849 36 ft 13 kts 203°
2026-05-07 00:43 1.34079 103.98808 35 ft 16 kts 203°
2026-05-07 00:43 1.33962 103.98758 34 ft 19 kts 203°
2026-05-07 00:43 1.33826 103.98701 34 ft 21 kts 202°
2026-05-07 00:44 1.33687 103.98643 34 ft 21 kts 203°
2026-05-07 00:44 1.33545 103.98583 33 ft 22 kts 203°
2026-05-07 00:44 1.33405 103.98523 35 ft 21 kts 203°
2026-05-07 00:44 1.33271 103.98467 37 ft 20 kts 201°
2026-05-07 00:45 1.33161 103.98421 37 ft 11 kts 202°
2026-05-07 00:45 1.33092 103.98403 37 ft 9 kts 169°
2026-05-07 00:45 1.33043 103.98453 36 ft 11 kts 115°
2026-05-07 00:45 1.33028 103.98534 36 ft 12 kts 75°
2026-05-07 00:46 1.33078 103.98583 36 ft 2 kts 24°
2026-05-07 00:46 1.33085 103.98586 36 ft 8 kts 24°
2026-05-07 00:46 1.33344 103.98695 35 ft 74 kts 23°
2026-05-07 00:47 1.34025 103.98983 35 ft 134 kts 23°
2026-05-07 00:47 1.35055 103.99418 39 ft 183 kts 23°
2026-05-07 00:47 1.36297 103.99957 321 ft 201 kts 24°
2026-05-07 00:47 1.37586 104.00528 971 ft 203 kts 24°
2026-05-07 00:48 1.38852 104.01062 1624 ft 201 kts 23°
2026-05-07 00:48 1.40224 104.01611 1933 ft 218 kts 24°
2026-05-07 00:48 1.41681 104.02218 2279 ft 234 kts 24°
2026-05-07 00:48 1.43242 104.02878 2649 ft 251 kts 24°
2026-05-07 00:49 1.44900 104.03579 3099 ft 264 kts 24°
2026-05-07 00:49 1.46604 104.04298 3786 ft 269 kts 24°
2026-05-07 00:49 1.48408 104.04895 4475 ft 274 kts
2026-05-07 00:49 1.50288 104.04720 5096 ft 278 kts 340°
2026-05-07 00:50 1.52062 104.03917 5844 ft 279 kts 332°
2026-05-07 00:50 1.53776 104.02991 6554 ft 281 kts 332°
2026-05-07 00:50 1.55516 104.02042 7134 ft 286 kts 332°
2026-05-07 00:50 1.57261 104.01096 7762 ft 289 kts 333°
2026-05-07 00:51 1.59057 104.00126 8348 ft 292 kts 333°
2026-05-07 00:51 1.60834 103.99167 8907 ft 296 kts 333°
2026-05-07 00:51 1.62688 103.98167 9449 ft 299 kts 333°
2026-05-07 00:51 1.64516 103.97181 10025 ft 301 kts 333°
2026-05-07 00:52 1.66402 103.96164 10384 ft 312 kts 333°
2026-05-07 00:52 1.68364 103.95106 10571 ft 328 kts 333°
2026-05-07 00:52 1.70427 103.93993 10771 ft 344 kts 333°
2026-05-07 00:52 1.72582 103.92831 11024 ft 359 kts 333°
2026-05-07 00:53 1.74750 103.91499 11269 ft 375 kts 324°
2026-05-07 00:53 1.76746 103.89694 11520 ft 391 kts 313°
2026-05-07 00:53 1.78478 103.87551 11863 ft 403 kts 309°
2026-05-07 00:53 1.80199 103.85306 12457 ft 407 kts 309°
2026-05-07 00:54 1.81949 103.83026 13080 ft 409 kts 309°
2026-05-07 00:54 1.83675 103.80781 13643 ft 412 kts 309°
2026-05-07 00:54 1.85430 103.78503 14185 ft 416 kts 309°
2026-05-07 00:54 1.87217 103.76183 14704 ft 420 kts 309°
2026-05-07 00:55 1.89003 103.73869 15252 ft 424 kts 309°
2026-05-07 00:55 1.90802 103.71536 15778 ft 427 kts 309°
2026-05-07 00:55 1.92638 103.69147 16270 ft 430 kts 309°
2026-05-07 00:55 1.94456 103.66784 16709 ft 435 kts 309°
2026-05-07 00:56 1.96317 103.64362 17183 ft 438 kts 309°
2026-05-07 00:56 1.98189 103.61929 17663 ft 441 kts 309°
2026-05-07 00:56 2.00078 103.59473 18112 ft 444 kts 309°
2026-05-07 00:56 2.01967 103.57018 18560 ft 446 kts 309°
2026-05-07 00:57 2.03860 103.54556 18980 ft 449 kts 309°
2026-05-07 00:57 2.05770 103.52072 19382 ft 453 kts 309°
2026-05-07 00:57 2.07687 103.49580 19810 ft 456 kts 309°
2026-05-07 00:57 2.09641 103.47040 20210 ft 459 kts 309°
2026-05-07 00:58 2.11600 103.44492 20620 ft 461 kts 308°
2026-05-07 00:58 2.13474 103.41888 20963 ft 465 kts 302°
2026-05-07 00:58 2.14953 103.38996 21289 ft 470 kts 292°
2026-05-07 00:58 2.16006 103.35889 21657 ft 472 kts 287°
2026-05-07 00:59 2.17845 103.29594 22383 ft 477 kts 286°
2026-05-07 00:59 2.18780 103.26386 22720 ft 479 kts 287°
2026-05-07 00:59 2.19707 103.23209 23047 ft 482 kts 287°
2026-05-07 01:00 2.20648 103.19985 23367 ft 485 kts 287°
2026-05-07 01:00 2.21602 103.16721 23713 ft 488 kts 287°
2026-05-07 01:00 2.22546 103.13490 24099 ft 489 kts 287°
2026-05-07 01:00 2.23506 103.10210 24487 ft 491 kts 287°
2026-05-07 01:01 2.24464 103.06936 24842 ft 493 kts 287°
2026-05-07 01:01 2.25422 103.03657 25154 ft 496 kts 287°
2026-05-07 01:01 2.26390 103.00350 25483 ft 498 kts 287°
2026-05-07 01:01 2.27362 102.97028 25839 ft 500 kts 287°
2026-05-07 01:02 2.28339 102.93690 26204 ft 502 kts 287°
2026-05-07 01:02 2.29316 102.90351 26526 ft 504 kts 287°
2026-05-07 01:02 2.30296 102.87000 26816 ft 507 kts 287°
2026-05-07 01:02 2.31299 102.83581 27137 ft 509 kts 287°
2026-05-07 01:03 2.32286 102.80223 27461 ft 510 kts 287°
2026-05-07 01:03 2.33295 102.76784 27789 ft 512 kts 287°
2026-05-07 01:03 2.34292 102.73374 28089 ft 514 kts 287°
2026-05-07 01:03 2.35288 102.69964 28400 ft 516 kts 287°
2026-05-07 01:04 2.36288 102.66541 28715 ft 517 kts 287°
2026-05-07 01:04 2.37298 102.63082 28989 ft 519 kts 287°
2026-05-07 01:04 2.38319 102.59586 29346 ft 520 kts 287°
2026-05-07 01:04 2.39314 102.56180 29768 ft 519 kts 287°
2026-05-07 01:05 2.40335 102.52685 29849 ft 518 kts 287°
2026-05-07 01:05 2.42312 102.45912 29860 ft 505 kts 287°
2026-05-07 01:06 2.44308 102.39165 29854 ft 505 kts 290°
2026-05-07 01:06 2.47533 102.32992 29857 ft 502 kts 308°
2026-05-07 01:07 2.52417 102.28059 29865 ft 500 kts 322°
2026-05-07 01:07 2.57878 102.23749 29862 ft 500 kts 323°
2026-05-07 01:08 2.63347 102.19454 29869 ft 500 kts 323°
2026-05-07 01:08 2.68822 102.15156 29871 ft 500 kts 323°
2026-05-07 01:09 2.74320 102.10840 29874 ft 499 kts 323°
2026-05-07 01:09 2.79780 102.06552 29885 ft 499 kts 323°
2026-05-07 01:10 2.85235 102.02270 29889 ft 500 kts 323°
2026-05-07 01:10 2.90706 101.97974 29902 ft 501 kts 323°
2026-05-07 01:11 2.96199 101.93659 29898 ft 500 kts 323°
2026-05-07 01:11 3.01684 101.89350 29900 ft 500 kts 323°
2026-05-07 01:12 3.07169 101.85042 29893 ft 499 kts 323°
2026-05-07 01:12 3.12629 101.80752 29893 ft 499 kts 323°
2026-05-07 01:13 3.18111 101.76445 29881 ft 499 kts 323°
2026-05-07 01:13 3.23579 101.72148 29874 ft 499 kts 323°
2026-05-07 01:14 3.29015 101.67870 29883 ft 500 kts 323°
2026-05-07 01:14 3.34769 101.63986 29887 ft 497 kts 335°
2026-05-07 01:15 3.41092 101.61123 29905 ft 496 kts 337°
2026-05-07 01:15 3.47392 101.58327 29910 ft 496 kts 337°
2026-05-07 01:16 3.53701 101.55524 29901 ft 495 kts 337°
2026-05-07 01:16 3.60037 101.52707 29892 ft 496 kts 337°
2026-05-07 01:17 3.66354 101.49897 29874 ft 496 kts 337°
2026-05-07 01:17 3.72638 101.47102 29871 ft 496 kts 337°
2026-05-07 01:18 3.78973 101.44282 29872 ft 494 kts 337°
2026-05-07 01:18 3.85253 101.41487 29882 ft 494 kts 337°
2026-05-07 01:19 3.91562 101.38682 29885 ft 494 kts 336°
2026-05-07 01:19 3.97847 101.35886 29888 ft 495 kts 336°
2026-05-07 01:20 4.04157 101.33079 29884 ft 494 kts 337°
2026-05-07 01:20 4.10488 101.30263 29883 ft 495 kts 337°
2026-05-07 01:21 4.16786 101.27460 29880 ft 493 kts 336°
2026-05-07 01:21 4.23041 101.24676 29869 ft 493 kts 336°
2026-05-07 01:22 4.29326 101.21878 29876 ft 495 kts 337°
2026-05-07 01:22 4.35651 101.19062 29884 ft 494 kts 337°
2026-05-07 01:23 4.41917 101.16271 29891 ft 493 kts 337°
2026-05-07 01:23 4.48206 101.13470 29889 ft 494 kts 337°
2026-05-07 01:24 4.54497 101.10667 29893 ft 494 kts 336°
2026-05-07 01:24 4.60800 101.07891 29890 ft 494 kts 338°
2026-05-07 01:25 4.67132 101.05170 29885 ft 494 kts 338°
2026-05-07 01:25 4.73454 101.02449 29883 ft 494 kts 337°
2026-05-07 01:26 4.79795 100.99719 29891 ft 494 kts 337°
2026-05-07 01:26 4.86122 100.96992 29896 ft 494 kts 337°
2026-05-07 01:27 4.92454 100.94261 29906 ft 495 kts 337°
2026-05-07 01:27 4.98769 100.91537 29912 ft 494 kts 337°
2026-05-07 01:28 5.05142 100.88785 29912 ft 496 kts 337°
2026-05-07 01:28 5.11477 100.86047 29908 ft 496 kts 337°
2026-05-07 01:29 5.17823 100.83305 29897 ft 496 kts 337°
2026-05-07 01:29 5.24202 100.80547 29893 ft 496 kts 337°
2026-05-07 01:30 5.30571 100.77792 29882 ft 497 kts 337°
2026-05-07 01:30 5.36712 100.74676 29873 ft 498 kts 326°
2026-05-07 01:31 5.41920 100.70034 29873 ft 500 kts 315°
2026-05-07 01:31 5.46806 100.65060 29867 ft 500 kts 315°
2026-05-07 01:32 5.51655 100.60119 29870 ft 500 kts 315°
2026-05-07 01:32 5.56542 100.55137 29871 ft 499 kts 315°
2026-05-07 01:33 5.61438 100.50145 29870 ft 500 kts 315°
2026-05-07 01:33 5.66298 100.45189 29869 ft 500 kts 315°
2026-05-07 01:34 5.71195 100.40194 29862 ft 501 kts 314°
2026-05-07 01:34 5.76085 100.35204 29862 ft 500 kts 314°
2026-05-07 01:35 5.80975 100.30214 29863 ft 499 kts 314°
2026-05-07 01:35 5.85828 100.25260 29862 ft 500 kts 314°
2026-05-07 01:36 5.90703 100.20282 29854 ft 500 kts 314°
2026-05-07 01:36 5.95580 100.15301 29850 ft 499 kts 314°
2026-05-07 01:37 6.00476 100.10299 29849 ft 499 kts 314°
2026-05-07 01:37 6.05331 100.05338 29850 ft 500 kts 314°
2026-05-07 01:38 6.10224 100.00336 29849 ft 500 kts 314°
2026-05-07 01:38 6.15106 99.95345 29847 ft 499 kts 314°
2026-05-07 01:39 6.19966 99.90374 29848 ft 500 kts 314°
2026-05-07 01:39 6.24838 99.85390 29849 ft 499 kts 314°
2026-05-07 01:40 6.29686 99.80428 29852 ft 500 kts 314°
2026-05-07 01:40 6.34348 99.75215 29851 ft 499 kts 304°
2026-05-07 01:41 6.37471 99.69019 29860 ft 501 kts 291°
2026-05-07 01:41 6.39917 99.62483 29850 ft 499 kts 290°
2026-05-07 01:42 6.42338 99.55975 29850 ft 500 kts 290°
2026-05-07 01:42 6.44770 99.49433 29848 ft 500 kts 290°
2026-05-07 01:43 6.47207 99.42871 29848 ft 501 kts 290°
2026-05-07 01:43 6.49622 99.36369 29846 ft 500 kts 290°
2026-05-07 01:44 6.52053 99.29818 29842 ft 500 kts 290°
2026-05-07 01:44 6.54484 99.23263 29835 ft 500 kts 290°
2026-05-07 01:45 6.56907 99.16727 29842 ft 500 kts 290°
2026-05-07 01:45 6.59334 99.10178 29846 ft 501 kts 290°
2026-05-07 01:46 6.61760 99.03630 29846 ft 502 kts 290°
2026-05-07 01:46 6.64194 98.97055 29848 ft 501 kts 290°
2026-05-07 01:47 6.66621 98.90497 29849 ft 501 kts 290°
2026-05-07 01:47 6.69042 98.83953 29848 ft 501 kts 290°
2026-05-07 01:48 6.71463 98.77405 29848 ft 501 kts 290°
2026-05-07 01:48 6.73894 98.70828 29848 ft 501 kts 290°
2026-05-07 01:49 6.76307 98.64296 29849 ft 502 kts 290°
2026-05-07 01:49 6.78742 98.57700 29849 ft 502 kts 290°
2026-05-07 01:50 6.81163 98.51142 29848 ft 502 kts 290°
2026-05-07 01:50 6.83596 98.44546 29849 ft 503 kts 290°
2026-05-07 01:51 6.86029 98.37947 29849 ft 504 kts 290°
2026-05-07 01:51 6.88451 98.31377 29847 ft 503 kts 290°
2026-05-07 01:52 6.90900 98.24728 29848 ft 505 kts 290°
2026-05-07 01:52 6.93328 98.18131 29847 ft 504 kts 290°
2026-05-07 01:53 6.95758 98.11529 29849 ft 505 kts 290°
2026-05-07 01:53 6.98267 98.04950 29843 ft 504 kts 295°
2026-05-07 01:54 7.02151 97.99114 29864 ft 509 kts 313°
2026-05-07 01:54 7.04757 97.96661 30147 ft 509 kts 322°
2026-05-07 01:54 7.07533 97.94522 30746 ft 504 kts 323°
2026-05-07 01:54 7.10344 97.92414 31399 ft 497 kts 324°
2026-05-07 01:55 7.13107 97.90350 31811 ft 496 kts 323°
2026-05-07 01:55 7.18693 97.86192 31846 ft 498 kts 324°
2026-05-07 01:56 7.24266 97.82053 31850 ft 495 kts 324°
2026-05-07 01:56 7.29820 97.77934 31838 ft 497 kts 324°
2026-05-07 01:57 7.35397 97.73798 31835 ft 497 kts 323°
2026-05-07 01:57 7.40985 97.69654 31844 ft 500 kts 324°
2026-05-07 01:58 7.46577 97.65506 31845 ft 497 kts 324°
2026-05-07 01:58 7.52159 97.61366 31851 ft 499 kts 324°
2026-05-07 01:59 7.57713 97.57246 31855 ft 497 kts 324°
2026-05-07 01:59 7.63304 97.53095 31857 ft 496 kts 324°
2026-05-07 02:00 7.68870 97.48968 31852 ft 499 kts 324°
2026-05-07 02:00 7.74466 97.44823 31849 ft 497 kts 324°
2026-05-07 02:01 7.80027 97.40702 31848 ft 498 kts 324°
2026-05-07 02:01 7.85625 97.36551 31850 ft 497 kts 324°
2026-05-07 02:02 7.91165 97.32442 31847 ft 495 kts 324°
2026-05-07 02:02 7.96730 97.28313 31845 ft 495 kts 324°
2026-05-07 02:03 8.02255 97.24210 31845 ft 495 kts 323°
2026-05-07 02:03 8.07089 97.19254 31841 ft 498 kts 306°
2026-05-07 02:04 8.10780 97.13333 31847 ft 497 kts 302°
2026-05-07 02:04 8.14352 97.07394 31848 ft 496 kts 302°
2026-05-07 02:05 8.17924 97.01450 31845 ft 496 kts 302°
2026-05-07 02:05 8.21511 96.95482 31853 ft 495 kts 302°
2026-05-07 02:06 8.25076 96.89548 31846 ft 495 kts 302°
2026-05-07 02:06 8.28618 96.83649 31853 ft 495 kts 302°
2026-05-07 02:07 8.32193 96.77692 31850 ft 496 kts 302°
2026-05-07 02:07 8.37559 96.68745 31850 ft 496 kts 302°
2026-05-07 02:08 8.41122 96.62801 31851 ft 496 kts 302°
2026-05-07 02:08 8.44693 96.56843 31850 ft 496 kts 302°
2026-05-07 02:09 8.48264 96.50882 31850 ft 495 kts 302°
2026-05-07 02:09 8.51824 96.44936 31851 ft 496 kts 302°
2026-05-07 02:10 8.55403 96.38955 31849 ft 496 kts 302°
2026-05-07 02:10 8.58976 96.32984 31847 ft 496 kts 302°
2026-05-07 02:11 8.62528 96.27042 31847 ft 496 kts 301°
2026-05-07 02:11 8.66100 96.21066 31855 ft 496 kts 301°
2026-05-07 02:12 8.69649 96.15126 31868 ft 495 kts 302°
2026-05-07 02:12 8.73228 96.09132 31869 ft 496 kts 302°
2026-05-07 02:13 8.76783 96.03176 31869 ft 496 kts 302°
2026-05-07 02:13 8.80332 95.97223 31869 ft 496 kts 302°
2026-05-07 02:14 8.83885 95.91258 31869 ft 496 kts 301°
2026-05-07 02:14 8.87434 95.85295 31862 ft 496 kts 301°
2026-05-07 02:15 8.90997 95.79309 31856 ft 495 kts 301°
2026-05-07 02:15 8.94542 95.73349 31857 ft 496 kts 302°
2026-05-07 02:16 8.98092 95.67379 31855 ft 496 kts 302°
2026-05-07 02:16 9.01625 95.61433 31853 ft 496 kts 302°
2026-05-07 02:17 9.05183 95.55444 31850 ft 497 kts 302°
2026-05-07 02:17 9.08737 95.49458 31849 ft 496 kts 302°
2026-05-07 02:18 9.12284 95.43481 31850 ft 496 kts 302°
2026-05-07 02:18 9.15826 95.37509 31850 ft 495 kts 302°
2026-05-07 02:19 9.19369 95.31534 31847 ft 495 kts 302°
2026-05-07 02:19 9.22918 95.25545 31847 ft 496 kts 302°
2026-05-07 02:20 9.26436 95.19605 31847 ft 496 kts 301°
2026-05-07 02:20 9.29989 95.13603 31848 ft 495 kts 301°
2026-05-07 02:21 9.33512 95.07650 31848 ft 495 kts 302°
2026-05-07 02:21 9.37037 95.01690 31848 ft 495 kts 302°
2026-05-07 02:22 9.40587 94.95686 31848 ft 494 kts 302°
2026-05-07 02:22 9.44094 94.89751 31848 ft 495 kts 302°
2026-05-07 02:23 9.47638 94.83750 31848 ft 495 kts 301°
2026-05-07 02:23 9.51159 94.77786 31848 ft 495 kts 301°
2026-05-07 02:24 9.54682 94.71814 31849 ft 494 kts 301°
2026-05-07 02:24 9.58192 94.65862 31849 ft 494 kts 301°
2026-05-07 02:25 9.61715 94.59885 31849 ft 495 kts 302°
2026-05-07 02:25 9.65245 94.53893 31858 ft 495 kts 301°
2026-05-07 02:26 9.68775 94.47898 31869 ft 495 kts 301°
2026-05-07 02:26 9.72514 94.42085 31866 ft 494 kts 311°
2026-05-07 02:27 9.77498 94.37296 31870 ft 494 kts 320°
2026-05-07 02:27 9.82737 94.32795 31868 ft 493 kts 320°
2026-05-07 02:28 9.87967 94.28298 31867 ft 492 kts 320°
2026-05-07 02:28 9.93186 94.23807 31868 ft 493 kts 320°
2026-05-07 02:29 9.98405 94.19311 31869 ft 494 kts 320°
2026-05-07 02:29 10.03633 94.14805 31865 ft 494 kts 320°
2026-05-07 02:30 10.08884 94.10276 31867 ft 494 kts 320°
2026-05-07 02:30 10.14139 94.05742 31868 ft 494 kts 320°
2026-05-07 02:31 10.19352 94.01242 31868 ft 493 kts 320°
2026-05-07 02:31 10.24589 93.96719 31865 ft 494 kts 320°
2026-05-07 02:32 10.29825 93.92195 31856 ft 494 kts 320°
2026-05-07 02:32 10.35058 93.87672 31853 ft 495 kts 321°
2026-05-07 02:33 10.40312 93.83128 31852 ft 496 kts 320°
2026-05-07 02:33 10.45559 93.78588 31853 ft 497 kts 321°
2026-05-07 02:34 10.50848 93.74010 31848 ft 496 kts 321°
2026-05-07 02:34 10.56104 93.69458 31848 ft 496 kts 321°
2026-05-07 02:35 10.61333 93.64927 31849 ft 495 kts 321°
2026-05-07 02:35 10.66585 93.60375 31847 ft 497 kts 321°
2026-05-07 02:36 10.71844 93.55814 31848 ft 497 kts 321°
2026-05-07 02:36 10.77131 93.51228 31849 ft 497 kts 321°
2026-05-07 02:37 10.82400 93.46653 31848 ft 499 kts 321°
2026-05-07 02:37 10.87669 93.42077 31850 ft 498 kts 321°
2026-05-07 02:38 10.92918 93.37516 31850 ft 498 kts 321°
2026-05-07 02:38 10.98212 93.32914 31855 ft 499 kts 321°
2026-05-07 02:39 11.03489 93.28324 31866 ft 498 kts 321°
2026-05-07 02:39 11.08738 93.23757 31868 ft 499 kts 321°
2026-05-07 02:40 11.14038 93.19143 31870 ft 499 kts 321°
2026-05-07 02:40 11.19311 93.14550 31868 ft 499 kts 321°
2026-05-07 02:41 11.24578 93.09960 31868 ft 498 kts 321°
2026-05-07 02:41 11.29850 93.05363 31869 ft 498 kts 321°
2026-05-07 02:42 11.35112 93.00773 31868 ft 496 kts 321°
2026-05-07 02:42 11.40359 92.96194 31869 ft 497 kts 321°
2026-05-07 02:43 11.45599 92.91618 31870 ft 497 kts 321°
2026-05-07 02:43 11.50837 92.87042 31872 ft 497 kts 321°
2026-05-07 02:44 11.56082 92.82458 31876 ft 498 kts 320°
2026-05-07 02:44 11.61341 92.77858 31882 ft 495 kts 320°
2026-05-07 02:45 11.66391 92.73128 31895 ft 495 kts 314°
2026-05-07 02:45 11.71122 92.67970 31889 ft 495 kts 314°
2026-05-07 02:46 11.75811 92.62840 31887 ft 492 kts 314°
2026-05-07 02:46 11.80458 92.57758 31880 ft 494 kts 314°
2026-05-07 02:47 11.85159 92.52613 31873 ft 492 kts 314°
2026-05-07 02:47 11.89817 92.47514 31869 ft 491 kts 314°
2026-05-07 02:48 11.94452 92.42440 31868 ft 489 kts 313°
2026-05-07 02:48 11.99078 92.37371 31869 ft 489 kts 313°
2026-05-07 02:49 12.03711 92.32293 31870 ft 489 kts 313°
2026-05-07 02:49 12.08341 92.27215 31867 ft 489 kts 313°
2026-05-07 02:50 12.12973 92.22131 31869 ft 489 kts 313°
2026-05-07 02:50 12.17637 92.17011 31869 ft 489 kts 313°
2026-05-07 02:51 12.22269 92.11923 31870 ft 490 kts 313°
2026-05-07 02:51 12.26909 92.06821 31875 ft 490 kts 313°
2026-05-07 02:52 12.31539 92.01730 31877 ft 491 kts 313°
2026-05-07 02:52 12.36180 91.96623 31877 ft 491 kts 313°
2026-05-07 02:53 12.40830 91.91504 31876 ft 490 kts 313°
2026-05-07 02:53 12.45459 91.86404 31878 ft 489 kts 313°
2026-05-07 02:54 12.50096 91.81293 31876 ft 489 kts 313°
2026-05-07 02:54 12.54727 91.76186 31880 ft 489 kts 313°
2026-05-07 02:55 12.59342 91.71094 31878 ft 488 kts 313°
2026-05-07 02:55 12.63968 91.65985 31878 ft 488 kts 313°
2026-05-07 02:56 12.68561 91.60912 31876 ft 488 kts 313°
2026-05-07 02:56 12.73182 91.55804 31872 ft 488 kts 312°
2026-05-07 02:57 12.77790 91.50707 31867 ft 488 kts 312°
2026-05-07 02:57 12.82385 91.45622 31868 ft 487 kts 312°
2026-05-07 02:58 12.86985 91.40528 31866 ft 486 kts 312°
2026-05-07 02:58 12.91573 91.35445 31867 ft 485 kts 312°
2026-05-07 02:59 12.96157 91.30364 31866 ft 485 kts 312°
2026-05-07 02:59 13.00770 91.25246 31870 ft 487 kts 312°
2026-05-07 03:00 13.05361 91.20151 31868 ft 489 kts 312°
2026-05-07 03:00 13.09953 91.15051 31870 ft 487 kts 311°
2026-05-07 03:01 13.14546 91.09949 31869 ft 487 kts 311°
2026-05-07 03:01 13.19133 91.04848 31870 ft 486 kts 311°
2026-05-07 03:02 13.23726 90.99738 31867 ft 488 kts 311°
2026-05-07 03:02 13.28332 90.94611 31877 ft 488 kts 311°
2026-05-07 03:03 13.32950 90.89467 31887 ft 488 kts 311°
2026-05-07 03:03 13.37539 90.84352 31888 ft 489 kts 311°
2026-05-07 03:04 13.42136 90.79225 31888 ft 489 kts 311°
2026-05-07 03:04 13.46754 90.74072 31888 ft 488 kts 311°
2026-05-07 03:05 13.51345 90.68947 31888 ft 488 kts 311°
2026-05-07 03:05 13.55947 90.63805 31888 ft 490 kts 311°
2026-05-07 03:06 13.60555 90.58653 31888 ft 489 kts 311°
2026-05-07 03:06 13.65133 90.53532 31879 ft 490 kts 311°
2026-05-07 03:07 13.69743 90.48373 31868 ft 489 kts 311°
2026-05-07 03:07 13.74363 90.43198 31867 ft 490 kts 311°
2026-05-07 03:08 13.78972 90.38032 31868 ft 492 kts 310°
2026-05-07 03:08 13.83605 90.32837 31870 ft 491 kts 310°
2026-05-07 03:09 13.88219 90.27660 31871 ft 490 kts 310°
2026-05-07 03:09 13.92799 90.22517 31870 ft 491 kts 310°
2026-05-07 03:10 13.97433 90.17310 31870 ft 492 kts 310°
2026-05-07 03:10 14.02054 90.12116 31871 ft 492 kts 310°
2026-05-07 03:11 14.06674 90.06918 31871 ft 491 kts 310°
2026-05-07 03:11 14.11262 90.01753 31870 ft 492 kts 310°
2026-05-07 03:12 14.15900 89.96529 31868 ft 492 kts 310°
2026-05-07 03:12 14.20506 89.91337 31871 ft 490 kts 310°
2026-05-07 03:13 14.25118 89.86134 31872 ft 491 kts 310°
2026-05-07 03:13 14.29702 89.80961 31872 ft 490 kts 310°
2026-05-07 03:14 14.34288 89.75781 31872 ft 490 kts 310°
2026-05-07 03:15 14.41191 89.67978 31874 ft 491 kts 310°
2026-05-07 03:15 14.45807 89.62756 31875 ft 491 kts 310°
2026-05-07 03:16 14.50399 89.57558 31875 ft 490 kts 310°
2026-05-07 03:16 14.54983 89.52365 31877 ft 491 kts 310°
2026-05-07 03:17 14.59566 89.47170 31878 ft 490 kts 310°
2026-05-07 03:17 14.64163 89.41957 31881 ft 490 kts 310°
2026-05-07 03:18 14.68751 89.36749 31881 ft 490 kts 310°
2026-05-07 03:18 14.73308 89.31574 31885 ft 489 kts 309°
2026-05-07 03:19 14.78036 89.26469 31888 ft 490 kts 311°
2026-05-07 03:19 14.82773 89.21451 31889 ft 490 kts 311°
2026-05-07 03:20 14.87539 89.16385 31892 ft 489 kts 311°
2026-05-07 03:20 14.92261 89.11357 31893 ft 488 kts 311°
2026-05-07 03:21 14.96999 89.06304 31894 ft 490 kts 311°
2026-05-07 03:21 15.01741 89.01242 31894 ft 490 kts 311°
2026-05-07 03:22 15.06459 88.96201 31890 ft 489 kts 311°
2026-05-07 03:22 15.11188 88.91144 31888 ft 489 kts 311°
2026-05-07 03:23 15.15908 88.86092 31887 ft 489 kts 311°
2026-05-07 03:23 15.20647 88.81016 31886 ft 489 kts 311°
2026-05-07 03:24 15.25370 88.75955 31884 ft 488 kts 311°
2026-05-07 03:24 15.30070 88.70915 31881 ft 489 kts 311°
2026-05-07 03:25 15.34791 88.65847 31874 ft 490 kts 311°
2026-05-07 03:25 15.39517 88.60772 31872 ft 489 kts 311°
2026-05-07 03:26 15.44244 88.55692 31871 ft 488 kts 311°
2026-05-07 03:26 15.48927 88.50655 31872 ft 488 kts 311°
2026-05-07 03:27 15.53670 88.45551 31871 ft 490 kts 311°
2026-05-07 03:27 15.58381 88.40477 31871 ft 489 kts 311°
2026-05-07 03:28 15.63089 88.35403 31871 ft 490 kts 311°
2026-05-07 03:28 15.67798 88.30325 31880 ft 489 kts 311°
2026-05-07 03:29 15.72530 88.25217 31880 ft 490 kts 311°
2026-05-07 03:29 15.77239 88.20132 31879 ft 490 kts 311°
2026-05-07 03:30 15.81968 88.15021 31881 ft 489 kts 310°
2026-05-07 03:30 15.86680 88.09924 31883 ft 489 kts 311°
2026-05-07 03:31 15.91398 88.04818 31887 ft 490 kts 310°
2026-05-07 03:31 15.96110 87.99714 31891 ft 489 kts 310°
2026-05-07 03:32 16.00820 87.94609 31890 ft 490 kts 310°
2026-05-07 03:32 16.05515 87.89516 31889 ft 489 kts 310°
2026-05-07 03:33 16.10241 87.84386 31890 ft 491 kts 310°
2026-05-07 03:33 16.14953 87.79267 31884 ft 490 kts 310°
2026-05-07 03:34 16.19643 87.74168 31886 ft 491 kts 310°
2026-05-07 03:34 16.24381 87.69014 31885 ft 489 kts 310°
2026-05-07 03:35 16.29053 87.63927 31884 ft 490 kts 310°
2026-05-07 03:35 16.33779 87.58778 31887 ft 490 kts 310°
2026-05-07 03:36 16.38489 87.53642 31885 ft 489 kts 310°
2026-05-07 03:36 16.43183 87.48521 31885 ft 489 kts 310°
2026-05-07 03:37 16.47860 87.43413 31889 ft 490 kts 310°
2026-05-07 03:37 16.52579 87.38256 31886 ft 489 kts 310°
2026-05-07 03:38 16.57249 87.33149 31890 ft 489 kts 310°
2026-05-07 03:38 16.61955 87.27999 31890 ft 489 kts 310°
2026-05-07 03:39 16.66651 87.22855 31890 ft 490 kts 310°
2026-05-07 03:39 16.71341 87.17715 31892 ft 490 kts 310°
2026-05-07 03:40 16.76043 87.12600 31892 ft 491 kts 311°
2026-05-07 03:40 16.80826 87.07501 31890 ft 490 kts 311°
2026-05-07 03:41 16.85587 87.02416 31896 ft 489 kts 311°
2026-05-07 03:41 16.90324 86.97352 31886 ft 488 kts 311°
2026-05-07 03:42 16.95065 86.92276 31877 ft 488 kts 311°
2026-05-07 03:42 16.99812 86.87189 31874 ft 487 kts 311°
2026-05-07 03:43 17.04544 86.82114 31869 ft 489 kts 311°
2026-05-07 03:43 17.09265 86.77047 31873 ft 488 kts 311°
2026-05-07 03:44 17.14018 86.71941 31878 ft 488 kts 311°
2026-05-07 03:44 17.18756 86.66846 31878 ft 488 kts 311°
2026-05-07 03:45 17.23485 86.61758 31882 ft 488 kts 311°
2026-05-07 03:45 17.28186 86.56697 31878 ft 487 kts 310°
2026-05-07 03:46 17.32903 86.51614 31882 ft 486 kts 310°
2026-05-07 03:46 17.37596 86.46552 31884 ft 486 kts 311°
2026-05-07 03:47 17.42325 86.41447 31885 ft 486 kts 311°
2026-05-07 03:47 17.47019 86.36377 31886 ft 485 kts 311°
2026-05-07 03:48 17.51711 86.31304 31888 ft 485 kts 310°
2026-05-07 03:48 17.56414 86.26217 31892 ft 484 kts 310°
2026-05-07 03:49 17.61099 86.21144 31888 ft 484 kts 310°
2026-05-07 03:49 17.65756 86.16098 31892 ft 483 kts 310°
2026-05-07 03:50 17.70425 86.11034 31890 ft 483 kts 310°
2026-05-07 03:50 17.75081 86.05980 31887 ft 482 kts 310°
2026-05-07 03:51 17.79755 86.00903 31888 ft 481 kts 310°
2026-05-07 03:51 17.84391 85.95864 31890 ft 481 kts 310°
2026-05-07 03:52 17.89027 85.90820 31889 ft 482 kts 310°
2026-05-07 03:52 17.93671 85.85764 31887 ft 481 kts 310°
2026-05-07 03:53 17.98308 85.80711 31890 ft 481 kts 310°
2026-05-07 03:53 18.02972 85.75624 31889 ft 481 kts 310°
2026-05-07 03:54 18.07596 85.70577 31890 ft 480 kts 310°
2026-05-07 03:54 18.12225 85.65520 31884 ft 479 kts 310°
2026-05-07 03:55 18.16821 85.60496 31884 ft 479 kts 310°
2026-05-07 03:55 18.21422 85.55462 31882 ft 478 kts 310°
2026-05-07 03:56 18.26038 85.50407 31881 ft 479 kts 310°
2026-05-07 03:56 18.30650 85.45352 31881 ft 479 kts 310°
2026-05-07 03:57 18.35265 85.40290 31882 ft 478 kts 310°
2026-05-07 03:57 18.39868 85.35238 31878 ft 477 kts 310°
2026-05-07 03:58 18.44486 85.30164 31885 ft 478 kts 309°
2026-05-07 03:58 18.49055 85.25140 31882 ft 476 kts 310°
2026-05-07 03:59 18.53633 85.20103 31877 ft 476 kts 309°
2026-05-07 03:59 18.58220 85.15050 31873 ft 476 kts 309°
2026-05-07 04:00 18.62786 85.10017 31871 ft 475 kts 309°
2026-05-07 04:00 18.67362 85.04969 31871 ft 476 kts 309°
2026-05-07 04:01 18.71905 84.99953 31872 ft 475 kts 309°
2026-05-07 04:01 18.76498 84.94894 31874 ft 475 kts 310°
2026-05-07 04:02 18.81084 84.89864 31875 ft 475 kts 309°
2026-05-07 04:02 18.85628 84.84864 31873 ft 474 kts 309°
2026-05-07 04:03 18.90207 84.79787 31874 ft 474 kts 309°
2026-05-07 04:03 18.94749 84.74750 31873 ft 474 kts 309°
2026-05-07 04:04 18.99280 84.69720 31880 ft 475 kts 309°
2026-05-07 04:04 19.03846 84.64648 31888 ft 473 kts 309°
2026-05-07 04:05 19.08361 84.59628 31900 ft 474 kts 309°
2026-05-07 04:05 19.12919 84.54556 31901 ft 473 kts 309°
2026-05-07 04:06 19.17486 84.49470 31900 ft 473 kts 309°
2026-05-07 04:06 19.22011 84.44428 31909 ft 471 kts 309°
2026-05-07 04:07 19.26516 84.39401 31926 ft 472 kts 309°
2026-05-07 04:07 19.31024 84.34369 31959 ft 470 kts 309°
2026-05-07 04:08 19.35528 84.29335 31994 ft 470 kts 309°
2026-05-07 04:08 19.40018 84.24313 32015 ft 470 kts 309°
2026-05-07 04:09 19.44521 84.19319 32018 ft 471 kts 310°
2026-05-07 04:09 19.49146 84.14363 32005 ft 472 kts 310°
2026-05-07 04:10 19.53731 84.09443 31994 ft 470 kts 310°
2026-05-07 04:10 19.58337 84.04489 31989 ft 470 kts 310°
2026-05-07 04:11 19.62908 83.99567 31993 ft 467 kts 310°
2026-05-07 04:11 19.67495 83.94620 31996 ft 469 kts 310°
2026-05-07 04:12 19.72047 83.89707 31996 ft 468 kts 310°
2026-05-07 04:12 19.76617 83.84769 31990 ft 468 kts 310°
2026-05-07 04:13 19.81161 83.79855 31980 ft 467 kts 310°
2026-05-07 04:13 19.85721 83.74919 31971 ft 467 kts 310°
2026-05-07 04:14 19.90262 83.70000 31966 ft 466 kts 310°
2026-05-07 04:14 19.94797 83.65082 31957 ft 467 kts 310°
2026-05-07 04:15 19.99354 83.60136 31958 ft 468 kts 310°
2026-05-07 04:15 20.03899 83.55199 31950 ft 468 kts 310°
2026-05-07 04:16 20.08443 83.50259 31941 ft 468 kts 310°
2026-05-07 04:16 20.13032 83.45266 31924 ft 466 kts 310°
2026-05-07 04:17 20.17553 83.40342 31912 ft 467 kts 310°
2026-05-07 04:17 20.22077 83.35410 31897 ft 465 kts 310°
2026-05-07 04:18 20.26607 83.30467 31900 ft 465 kts 309°
2026-05-07 04:18 20.31118 83.25542 31894 ft 464 kts 309°
2026-05-07 04:19 20.35634 83.20606 31893 ft 463 kts 309°
2026-05-07 04:19 20.40106 83.15713 31892 ft 463 kts 309°
2026-05-07 04:20 20.44621 83.10770 31894 ft 463 kts 309°
2026-05-07 04:20 20.49081 83.05883 31903 ft 462 kts 309°
2026-05-07 04:21 20.55843 82.98463 31911 ft 463 kts 309°
2026-05-07 04:21 20.60306 82.93559 31916 ft 462 kts 309°
2026-05-07 04:22 20.64781 82.88623 31914 ft 462 kts 309°
2026-05-07 04:22 20.69257 82.83683 31914 ft 462 kts 309°
2026-05-07 04:23 20.73708 82.78766 31921 ft 462 kts 309°
2026-05-07 04:23 20.78158 82.73846 31915 ft 461 kts 309°
2026-05-07 04:24 20.82633 82.68895 31922 ft 461 kts 309°
2026-05-07 04:24 20.87059 82.63992 31922 ft 458 kts 309°
2026-05-07 04:25 20.91487 82.59089 31923 ft 459 kts 309°
2026-05-07 04:25 20.95929 82.54202 31916 ft 459 kts 309°
2026-05-07 04:26 21.00390 82.49290 31908 ft 458 kts 309°
2026-05-07 04:26 21.04813 82.44414 31910 ft 457 kts 309°
2026-05-07 04:27 21.09224 82.39546 31907 ft 456 kts 309°
2026-05-07 04:27 21.13659 82.34647 31901 ft 455 kts 309°
2026-05-07 04:28 21.18079 82.29760 31906 ft 456 kts 309°
2026-05-07 04:28 21.22477 82.24893 31908 ft 455 kts 309°
2026-05-07 04:29 21.26874 82.20022 31905 ft 455 kts 309°
2026-05-07 04:29 21.31260 82.15159 31898 ft 455 kts 309°
2026-05-07 04:30 21.35658 82.10278 31895 ft 454 kts 309°
2026-05-07 04:30 21.40040 82.05412 31895 ft 452 kts 309°
2026-05-07 04:31 21.44405 82.00558 31897 ft 453 kts 309°
2026-05-07 04:31 21.48865 81.95722 31904 ft 454 kts 310°
2026-05-07 04:32 21.53333 81.90949 31911 ft 455 kts 310°
2026-05-07 04:32 21.57800 81.86164 31911 ft 454 kts 310°
2026-05-07 04:33 21.62248 81.81392 31909 ft 453 kts 310°
2026-05-07 04:33 21.66715 81.76595 31905 ft 452 kts 310°
2026-05-07 04:34 21.71164 81.71809 31909 ft 453 kts 310°
2026-05-07 04:34 21.75607 81.67026 31910 ft 450 kts 310°
2026-05-07 04:35 21.80008 81.62260 31910 ft 450 kts 309°
2026-05-07 04:35 21.84389 81.57390 31917 ft 450 kts 309°
2026-05-07 04:36 21.88728 81.52563 31921 ft 449 kts 309°
2026-05-07 04:36 21.93055 81.47750 31926 ft 449 kts 309°
2026-05-07 04:37 21.97353 81.42886 31929 ft 447 kts 309°
2026-05-07 04:37 22.01633 81.38024 31948 ft 446 kts 309°
2026-05-07 04:38 22.05910 81.33166 31960 ft 448 kts 308°
2026-05-07 04:38 22.10177 81.28315 31967 ft 446 kts 308°
2026-05-07 04:39 22.14507 81.23480 31972 ft 448 kts 309°
2026-05-07 04:39 22.18842 81.18648 31994 ft 447 kts 309°
2026-05-07 04:40 22.23143 81.13847 32009 ft 446 kts 309°
2026-05-07 04:40 22.27459 81.09023 32030 ft 448 kts 309°
2026-05-07 04:41 22.31774 81.04195 32037 ft 447 kts 309°
2026-05-07 04:41 22.36075 80.99379 32037 ft 446 kts 309°
2026-05-07 04:42 22.40417 80.94509 32027 ft 448 kts 309°
2026-05-07 04:42 22.44734 80.89665 32023 ft 448 kts 309°
2026-05-07 04:43 22.49027 80.84843 32019 ft 447 kts 309°
2026-05-07 04:43 22.53337 80.79997 32022 ft 448 kts 309°
2026-05-07 04:44 22.57660 80.75131 32013 ft 446 kts 309°
2026-05-07 04:44 22.61967 80.70279 32010 ft 447 kts 309°
2026-05-07 04:45 22.66248 80.65451 32011 ft 447 kts 308°
2026-05-07 04:45 22.70552 80.60593 31997 ft 448 kts 308°
2026-05-07 04:46 22.74849 80.55739 31979 ft 446 kts 308°
2026-05-07 04:46 22.79169 80.50851 31987 ft 449 kts 309°
2026-05-07 04:47 22.83484 80.45968 31982 ft 448 kts 309°
2026-05-07 04:47 22.87766 80.41116 31986 ft 446 kts 308°
2026-05-07 04:48 22.92066 80.36238 31988 ft 446 kts 308°
2026-05-07 04:48 22.96350 80.31374 32011 ft 446 kts 308°
2026-05-07 04:49 23.00631 80.26509 31998 ft 444 kts 308°
2026-05-07 04:49 23.04911 80.21640 31985 ft 444 kts 308°
2026-05-07 04:50 23.09151 80.16811 31976 ft 445 kts 308°
2026-05-07 04:50 23.13430 80.11934 31951 ft 446 kts 308°
2026-05-07 04:51 23.17672 80.07028 31935 ft 443 kts 304°
2026-05-07 04:51 23.21062 80.01533 31936 ft 438 kts 297°
2026-05-07 04:52 23.24204 79.95835 31928 ft 437 kts 297°
2026-05-07 04:52 23.27300 79.90208 31935 ft 437 kts 297°
2026-05-07 04:53 23.30415 79.84536 31941 ft 436 kts 297°
2026-05-07 04:53 23.33534 79.78850 31949 ft 438 kts 297°
2026-05-07 04:54 23.36635 79.73192 31957 ft 438 kts 297°
2026-05-07 04:54 23.39754 79.67493 31959 ft 437 kts 297°
2026-05-07 04:55 23.42845 79.61838 31955 ft 437 kts 297°
2026-05-07 04:55 23.45948 79.56155 31950 ft 436 kts 297°
2026-05-07 04:56 23.49036 79.50494 31942 ft 436 kts 297°
2026-05-07 04:56 23.52134 79.44805 31936 ft 436 kts 297°
2026-05-07 04:57 23.55217 79.39141 31934 ft 437 kts 297°
2026-05-07 04:57 23.58314 79.33443 31944 ft 436 kts 297°
2026-05-07 04:58 23.61402 79.27754 31946 ft 436 kts 297°
2026-05-07 04:58 23.64487 79.22066 31944 ft 436 kts 297°
2026-05-07 04:59 23.67578 79.16359 31948 ft 436 kts 297°
2026-05-07 04:59 23.70639 79.10703 31947 ft 436 kts 297°
2026-05-07 05:00 23.73711 79.05019 31948 ft 437 kts 297°
2026-05-07 05:00 23.76791 78.99313 31945 ft 435 kts 297°
2026-05-07 05:01 23.79858 78.93625 31940 ft 434 kts 297°
2026-05-07 05:01 23.82912 78.87953 31942 ft 433 kts 297°
2026-05-07 05:02 23.85961 78.82286 31941 ft 435 kts 297°
2026-05-07 05:02 23.89019 78.76594 31943 ft 434 kts 297°
2026-05-07 05:03 23.92070 78.70910 31942 ft 434 kts 297°
2026-05-07 05:03 23.95107 78.65245 31946 ft 434 kts 297°
2026-05-07 05:04 23.98153 78.59557 31951 ft 432 kts 298°
2026-05-07 05:04 24.01185 78.53889 31948 ft 433 kts 298°
2026-05-07 05:05 24.04299 78.48215 31949 ft 434 kts 298°
2026-05-07 05:05 24.07398 78.42580 31946 ft 433 kts 298°
2026-05-07 05:06 24.10500 78.36926 31945 ft 434 kts 298°
2026-05-07 05:06 24.13611 78.31247 31953 ft 434 kts 298°
2026-05-07 05:07 24.16699 78.25602 31944 ft 433 kts 298°
2026-05-07 05:07 24.19786 78.19953 31943 ft 434 kts 298°
2026-05-07 05:08 24.22865 78.14311 31942 ft 433 kts 298°
2026-05-07 05:08 24.25950 78.08650 31941 ft 435 kts 298°
2026-05-07 05:09 24.29056 78.02946 31944 ft 434 kts 298°
2026-05-07 05:09 24.32140 77.97273 31946 ft 433 kts 298°
2026-05-07 05:10 24.35210 77.91621 31945 ft 433 kts 299°
2026-05-07 05:10 24.38286 77.85951 31946 ft 434 kts 299°
2026-05-07 05:11 24.41370 77.80261 31946 ft 433 kts 299°
2026-05-07 05:11 24.44441 77.74587 31944 ft 433 kts 299°
2026-05-07 05:12 24.47513 77.68904 31936 ft 433 kts 299°
2026-05-07 05:12 24.50579 77.63226 31935 ft 432 kts 299°
2026-05-07 05:13 24.53634 77.57560 31937 ft 432 kts 299°
2026-05-07 05:13 24.56698 77.51873 31936 ft 431 kts 300°
2026-05-07 05:14 24.59730 77.46237 31933 ft 432 kts 300°
2026-05-07 05:14 24.62786 77.40552 31931 ft 431 kts 300°
2026-05-07 05:15 24.65826 77.34888 31926 ft 430 kts 299°
2026-05-07 05:15 24.68861 77.29227 31941 ft 431 kts 299°
2026-05-07 05:16 24.71938 77.23549 32041 ft 436 kts 300°
2026-05-07 05:16 24.73497 77.20719 32523 ft 432 kts 300°
2026-05-07 05:16 24.75035 77.17927 33195 ft 426 kts 300°
2026-05-07 05:17 24.76563 77.15150 33786 ft 421 kts 300°
2026-05-07 05:17 24.78086 77.12377 33919 ft 424 kts 300°
2026-05-07 05:17 24.81158 77.06778 33922 ft 422 kts 300°
2026-05-07 05:18 24.84166 77.01289 33916 ft 422 kts 300°
2026-05-07 05:18 24.87204 76.95737 33914 ft 421 kts 300°
2026-05-07 05:19 24.90241 76.90179 33908 ft 422 kts 300°
2026-05-07 05:19 24.93261 76.84646 33902 ft 421 kts 300°
2026-05-07 05:20 24.96265 76.79135 33892 ft 421 kts 300°
2026-05-07 05:20 24.99284 76.73592 33889 ft 420 kts 300°
2026-05-07 05:21 25.04487 76.65744 33883 ft 421 kts 306°
2026-05-07 05:22 25.08047 76.60633 33875 ft 423 kts 306°
2026-05-07 05:22 25.11649 76.55453 33876 ft 422 kts 306°
2026-05-07 05:23 25.15213 76.50318 33867 ft 421 kts 306°
2026-05-07 05:23 25.18754 76.45210 33862 ft 420 kts 306°
2026-05-07 05:24 25.22332 76.40042 33859 ft 421 kts 306°
2026-05-07 05:24 25.25890 76.34897 33866 ft 420 kts 306°
2026-05-07 05:25 25.29431 76.29771 33877 ft 420 kts 306°
2026-05-07 05:25 25.32980 76.24627 33877 ft 419 kts 306°
2026-05-07 05:26 25.36511 76.19505 33876 ft 419 kts 306°
2026-05-07 05:26 25.40043 76.14375 33875 ft 420 kts 306°
2026-05-07 05:27 25.43584 76.09226 33876 ft 419 kts 306°
2026-05-07 05:27 25.47119 76.04082 33878 ft 420 kts 306°
2026-05-07 05:28 25.50666 75.98913 33870 ft 419 kts 306°
2026-05-07 05:28 25.54183 75.93781 33880 ft 419 kts 306°
2026-05-07 05:29 25.57713 75.88626 33880 ft 420 kts 306°
2026-05-07 05:29 25.61239 75.83472 33885 ft 419 kts 306°
2026-05-07 05:30 25.64740 75.78348 33884 ft 419 kts 306°
2026-05-07 05:30 25.68264 75.73186 33892 ft 419 kts 306°
2026-05-07 05:31 25.71782 75.68024 33877 ft 418 kts 307°
2026-05-07 05:31 25.75270 75.62904 33883 ft 419 kts 307°
2026-05-07 05:32 25.78777 75.57748 33879 ft 419 kts 307°
2026-05-07 05:32 25.82274 75.52602 33878 ft 418 kts 307°
2026-05-07 05:33 25.85793 75.47417 33869 ft 418 kts 307°
2026-05-07 05:33 25.89249 75.42253 33870 ft 418 kts 304°
2026-05-07 05:34 25.92501 75.36893 33873 ft 417 kts 304°
2026-05-07 05:34 25.95756 75.31531 33875 ft 417 kts 304°
2026-05-07 05:35 25.99019 75.26166 33866 ft 418 kts 304°
2026-05-07 05:35 26.02280 75.20808 33870 ft 418 kts 304°
2026-05-07 05:36 26.05543 75.15446 33867 ft 417 kts 304°
2026-05-07 05:36 26.08779 75.10122 33876 ft 418 kts 304°
2026-05-07 05:37 26.12050 75.04736 33878 ft 418 kts 304°
2026-05-07 05:37 26.15279 74.99415 33889 ft 418 kts 304°
2026-05-07 05:38 26.18378 74.93935 33901 ft 419 kts 300°
2026-05-07 05:38 26.21188 74.88269 33890 ft 418 kts 300°
2026-05-07 05:39 26.23988 74.82613 33887 ft 419 kts 300°
2026-05-07 05:39 26.26812 74.76906 33903 ft 418 kts 300°
2026-05-07 05:40 26.29600 74.71263 33896 ft 418 kts 300°
2026-05-07 05:40 26.32420 74.65551 33900 ft 418 kts 300°
2026-05-07 05:41 26.35204 74.59905 33894 ft 416 kts 300°
2026-05-07 05:41 26.37987 74.54253 33897 ft 417 kts 300°
2026-05-07 05:42 26.40779 74.48576 33898 ft 418 kts 300°
2026-05-07 05:42 26.43578 74.42876 33887 ft 417 kts 300°
2026-05-07 05:43 26.46361 74.37203 33885 ft 416 kts 300°
2026-05-07 05:43 26.49151 74.31509 33883 ft 418 kts 300°
2026-05-07 05:44 26.51916 74.25856 33890 ft 416 kts 300°
2026-05-07 05:44 26.54707 74.20144 33873 ft 417 kts 300°
2026-05-07 05:45 26.57512 74.14459 33865 ft 416 kts 300°
2026-05-07 05:45 26.60327 74.08797 33865 ft 417 kts 300°
2026-05-07 05:46 26.63133 74.03140 33860 ft 418 kts 300°
2026-05-07 05:46 26.65948 73.97457 33856 ft 417 kts 300°
2026-05-07 05:47 26.68760 73.91771 33856 ft 416 kts 301°
2026-05-07 05:47 26.71561 73.86098 33848 ft 417 kts 301°
2026-05-07 05:48 26.74347 73.80450 33857 ft 415 kts 300°
2026-05-07 05:48 26.77135 73.74791 33846 ft 415 kts 301°
2026-05-07 05:49 26.79909 73.69151 33853 ft 415 kts 301°
2026-05-07 05:49 26.82699 73.63474 33844 ft 416 kts 301°
2026-05-07 05:50 26.85479 73.57806 33843 ft 414 kts 301°
2026-05-07 05:50 26.88248 73.52155 33838 ft 415 kts 301°
2026-05-07 05:51 26.91022 73.46488 33833 ft 415 kts 301°
2026-05-07 05:51 26.93786 73.40833 33831 ft 413 kts 301°
2026-05-07 05:52 26.96547 73.35168 33820 ft 415 kts 301°
2026-05-07 05:52 26.99278 73.29477 33835 ft 415 kts 300°
2026-05-07 05:53 27.02011 73.23773 33838 ft 414 kts 301°
2026-05-07 05:53 27.04743 73.18066 33838 ft 414 kts 301°
2026-05-07 05:54 27.07454 73.12396 33834 ft 414 kts 301°
2026-05-07 05:54 27.10180 73.06690 33830 ft 415 kts 300°
2026-05-07 05:55 27.12907 73.00974 33841 ft 414 kts 300°
2026-05-07 05:55 27.15616 72.95285 33841 ft 412 kts 301°
2026-05-07 05:56 27.18308 72.89629 33828 ft 413 kts 301°
2026-05-07 05:56 27.21003 72.83955 33825 ft 412 kts 300°
2026-05-07 05:57 27.23710 72.78252 33818 ft 414 kts 301°
2026-05-07 05:57 27.26419 72.72535 33822 ft 413 kts 301°
2026-05-07 05:58 27.29121 72.66825 33811 ft 413 kts 301°
2026-05-07 05:58 27.31818 72.61118 33808 ft 414 kts 300°
2026-05-07 05:59 27.34513 72.55409 33805 ft 413 kts 301°
2026-05-07 05:59 27.37202 72.49703 33791 ft 413 kts 301°
2026-05-07 06:00 27.39891 72.43990 33788 ft 413 kts 300°
2026-05-07 06:00 27.42565 72.38302 33793 ft 414 kts 301°
2026-05-07 06:01 27.45257 72.32567 33803 ft 414 kts 300°
2026-05-07 06:01 27.47935 72.26855 33797 ft 414 kts 300°
2026-05-07 06:02 27.50635 72.21086 33794 ft 414 kts 300°
2026-05-07 06:02 27.53304 72.15378 33802 ft 413 kts 300°
2026-05-07 06:03 27.55993 72.09618 33798 ft 413 kts 300°
2026-05-07 06:03 27.58645 72.03929 33788 ft 413 kts 300°
2026-05-07 06:04 27.61325 71.98174 33788 ft 413 kts 300°
2026-05-07 06:04 27.63988 71.92445 33787 ft 412 kts 300°
2026-05-07 06:05 27.66659 71.86695 33776 ft 413 kts 300°
2026-05-07 06:05 27.69308 71.80981 33778 ft 412 kts 300°
2026-05-07 06:06 27.71981 71.75210 33775 ft 413 kts 300°
2026-05-07 06:06 27.74628 71.69484 33766 ft 412 kts 300°
2026-05-07 06:07 27.77277 71.63749 33759 ft 414 kts 300°
2026-05-07 06:07 27.79930 71.57993 33753 ft 412 kts 301°
2026-05-07 06:08 27.82577 71.52247 33744 ft 411 kts 300°
2026-05-07 06:08 27.85224 71.46490 33747 ft 413 kts 300°
2026-05-07 06:09 27.87847 71.40745 33744 ft 412 kts 300°
2026-05-07 06:09 27.90375 71.34931 33744 ft 413 kts 299°
2026-05-07 06:10 27.92909 71.29097 33749 ft 412 kts 299°
2026-05-07 06:10 27.95446 71.23255 33754 ft 413 kts 299°
2026-05-07 06:11 27.98002 71.17367 33750 ft 414 kts 299°
2026-05-07 06:11 28.00538 71.11519 33743 ft 412 kts 299°
2026-05-07 06:12 28.03065 71.05682 33736 ft 411 kts 299°
2026-05-07 06:12 28.05600 70.99820 33724 ft 413 kts 299°
2026-05-07 06:13 28.08122 70.93981 33728 ft 411 kts 299°
2026-05-07 06:13 28.10653 70.88112 33743 ft 413 kts 299°
2026-05-07 06:14 28.13175 70.82252 33757 ft 412 kts 299°
2026-05-07 06:14 28.15678 70.76432 33747 ft 411 kts 299°
2026-05-07 06:15 28.18170 70.70628 33745 ft 412 kts 299°
2026-05-07 06:15 28.20684 70.64764 33737 ft 412 kts 299°
2026-05-07 06:16 28.23193 70.58902 33740 ft 411 kts 299°
2026-05-07 06:16 28.25690 70.53063 33733 ft 413 kts 299°
2026-05-07 06:17 28.28180 70.47228 33742 ft 413 kts 299°
2026-05-07 06:17 28.30678 70.41367 33734 ft 412 kts 299°
2026-05-07 06:18 28.33256 70.35572 33732 ft 410 kts 304°
2026-05-07 06:18 28.36802 70.30537 33750 ft 409 kts 316°
2026-05-07 06:19 28.41403 70.26681 33747 ft 411 kts 329°
2026-05-07 06:19 28.46743 70.24297 33747 ft 416 kts 341°
2026-05-07 06:20 28.52379 70.22782 33739 ft 418 kts 342°
2026-05-07 06:20 28.58039 70.21236 33737 ft 418 kts 342°
2026-05-07 06:21 28.63707 70.19661 33732 ft 419 kts 341°
2026-05-07 06:21 28.69357 70.18075 33733 ft 417 kts 341°
2026-05-07 06:22 28.75011 70.16479 33736 ft 418 kts 341°
2026-05-07 06:22 28.83478 70.14082 33740 ft 418 kts 342°
2026-05-07 06:23 28.89107 70.12485 33746 ft 419 kts 342°
2026-05-07 06:23 28.94773 70.10874 33738 ft 419 kts 341°
2026-05-07 06:24 29.00453 70.09257 33747 ft 419 kts 342°
2026-05-07 06:24 29.06113 70.07645 33754 ft 419 kts 342°
2026-05-07 06:25 29.11770 70.06031 33769 ft 419 kts 342°
2026-05-07 06:25 29.17438 70.04412 33781 ft 420 kts 341°
2026-05-07 06:26 29.23128 70.02785 33810 ft 421 kts 342°
2026-05-07 06:26 29.28805 70.01160 33815 ft 419 kts 342°
2026-05-07 06:27 29.34444 69.99543 33825 ft 420 kts 341°
2026-05-07 06:27 29.40131 69.97912 33834 ft 418 kts 341°
2026-05-07 06:28 29.45771 69.96291 33855 ft 421 kts 342°
2026-05-07 06:28 29.51465 69.94654 33868 ft 421 kts 341°
2026-05-07 06:29 29.57113 69.93027 33883 ft 421 kts 342°
2026-05-07 06:29 29.62803 69.91387 33910 ft 420 kts 341°
2026-05-07 06:30 29.68478 69.89750 33928 ft 420 kts 341°
2026-05-07 06:30 29.74153 69.88110 33976 ft 421 kts 341°
2026-05-07 06:31 29.79862 69.86459 34017 ft 421 kts 341°
2026-05-07 06:31 29.85499 69.84826 34059 ft 420 kts 342°
2026-05-07 06:32 29.91180 69.83179 34070 ft 421 kts 341°
2026-05-07 06:32 29.96872 69.81526 34104 ft 420 kts 342°
2026-05-07 06:33 30.02525 69.79884 34124 ft 421 kts 341°
2026-05-07 06:33 30.08200 69.78232 34133 ft 420 kts 341°
2026-05-07 06:34 30.13935 69.76560 34155 ft 422 kts 342°
2026-05-07 06:34 30.19611 69.74906 34161 ft 420 kts 341°
2026-05-07 06:35 30.25270 69.73253 34169 ft 421 kts 341°
2026-05-07 06:35 30.31047 69.71811 34166 ft 423 kts 343°
2026-05-07 06:36 30.36794 69.70425 34171 ft 423 kts 344°
2026-05-07 06:36 30.42578 69.69018 34167 ft 422 kts 344°
2026-05-07 06:37 30.48313 69.67615 34153 ft 424 kts 344°
2026-05-07 06:37 30.54068 69.66204 34162 ft 423 kts 344°
2026-05-07 06:38 30.59857 69.64782 34175 ft 422 kts 344°
2026-05-07 06:38 30.65616 69.63364 34174 ft 424 kts 343°
2026-05-07 06:39 30.71374 69.61945 34185 ft 423 kts 343°
2026-05-07 06:39 30.77142 69.60520 34189 ft 424 kts 343°
2026-05-07 06:40 30.82924 69.59091 34196 ft 424 kts 344°
2026-05-07 06:40 30.88666 69.57670 34204 ft 425 kts 344°
2026-05-07 06:41 30.94442 69.56239 34204 ft 422 kts 344°
2026-05-07 06:41 31.00209 69.54807 34205 ft 426 kts 343°
2026-05-07 06:42 31.05993 69.53371 34211 ft 425 kts 344°
2026-05-07 06:42 31.11793 69.51928 34227 ft 422 kts 344°
2026-05-07 06:43 31.17583 69.50485 34236 ft 426 kts 344°
2026-05-07 06:43 31.23366 69.49043 34236 ft 426 kts 344°
2026-05-07 06:44 31.29132 69.47566 34231 ft 424 kts 341°
2026-05-07 06:44 31.34510 69.44907 34217 ft 418 kts 327°
2026-05-07 06:45 31.39023 69.40718 34196 ft 415 kts 314°
2026-05-07 06:45 31.42708 69.35497 34184 ft 418 kts 309°
2026-05-07 06:46 31.46312 69.30181 34206 ft 416 kts 309°
2026-05-07 06:46 31.49884 69.24903 34225 ft 415 kts 309°
2026-05-07 06:47 31.53485 69.19573 34241 ft 416 kts 309°
2026-05-07 06:47 31.57046 69.14294 34256 ft 415 kts 309°
2026-05-07 06:48 31.60636 69.08967 34272 ft 416 kts 309°
2026-05-07 06:48 31.64194 69.03677 34274 ft 415 kts 309°
2026-05-07 06:49 31.67791 68.98364 34268 ft 414 kts 310°
2026-05-07 06:49 31.71501 68.93206 34273 ft 416 kts 310°
2026-05-07 06:50 31.75229 68.88011 34285 ft 415 kts 310°
2026-05-07 06:50 31.78920 68.82851 34289 ft 416 kts 310°
2026-05-07 06:51 31.82626 68.77657 34302 ft 415 kts 310°
2026-05-07 06:51 31.86348 68.72432 34315 ft 415 kts 310°
2026-05-07 06:52 31.90032 68.67252 34313 ft 414 kts 310°
2026-05-07 06:52 31.93738 68.62033 34320 ft 417 kts 310°
2026-05-07 06:53 31.97435 68.56818 34331 ft 415 kts 310°
2026-05-07 06:53 32.01131 68.51598 34349 ft 415 kts 310°
2026-05-07 06:54 32.04822 68.46378 34358 ft 417 kts 310°
2026-05-07 06:54 32.08534 68.41121 34362 ft 415 kts 310°
2026-05-07 06:55 32.12228 68.35881 34386 ft 417 kts 310°
2026-05-07 06:55 32.15928 68.30627 34407 ft 416 kts 309°
2026-05-07 06:56 32.19619 68.25376 34408 ft 417 kts 310°
2026-05-07 06:56 32.23331 68.20090 34411 ft 418 kts 309°
2026-05-07 06:57 32.27014 68.14837 34400 ft 417 kts 310°
2026-05-07 06:57 32.30714 68.09553 34392 ft 417 kts 310°
2026-05-07 06:58 32.34400 68.04281 34387 ft 418 kts 309°
2026-05-07 06:58 32.38110 67.98967 34391 ft 419 kts 310°
2026-05-07 06:59 32.41815 67.93653 34384 ft 419 kts 309°
2026-05-07 06:59 32.45501 67.88358 34388 ft 419 kts 309°
2026-05-07 07:00 32.49186 67.83057 34391 ft 419 kts 309°
2026-05-07 07:00 32.52982 67.77808 34389 ft 419 kts 311°
2026-05-07 07:01 32.56856 67.72666 34386 ft 419 kts 311°
2026-05-07 07:01 32.60718 67.67519 34395 ft 418 kts 311°
2026-05-07 07:02 32.64562 67.62377 34394 ft 419 kts 311°
2026-05-07 07:02 32.68426 67.57198 34411 ft 419 kts 311°
2026-05-07 07:03 32.72290 67.52008 34424 ft 420 kts 311°
2026-05-07 07:03 32.76159 67.46802 34420 ft 421 kts 311°
2026-05-07 07:04 32.79941 67.41573 34458 ft 420 kts 309°
2026-05-07 07:04 32.83671 67.36224 34458 ft 418 kts 309°
2026-05-07 07:05 32.87410 67.30864 34484 ft 420 kts 309°
2026-05-07 07:05 32.91131 67.25531 34514 ft 419 kts 309°
2026-05-07 07:06 32.94851 67.20196 34542 ft 420 kts 309°
2026-05-07 07:06 32.98569 67.14855 34572 ft 421 kts 309°
2026-05-07 07:07 33.02289 67.09508 34576 ft 420 kts 309°
2026-05-07 07:07 33.05999 67.04166 34612 ft 420 kts 309°
2026-05-07 07:08 33.09725 66.98794 34608 ft 418 kts 309°
2026-05-07 07:08 33.13443 66.93425 34617 ft 419 kts 309°
2026-05-07 07:09 33.17145 66.88071 34595 ft 421 kts 309°
2026-05-07 07:09 33.20852 66.82703 34607 ft 419 kts 309°
2026-05-07 07:10 33.24559 66.77327 34592 ft 420 kts 309°
2026-05-07 07:10 33.28285 66.71915 34577 ft 420 kts 309°
2026-05-07 07:11 33.31983 66.66537 34578 ft 420 kts 308°
2026-05-07 07:11 33.35684 66.61145 34554 ft 422 kts 309°
2026-05-07 07:12 33.39389 66.55740 34533 ft 421 kts 309°
2026-05-07 07:12 33.43102 66.50316 34541 ft 423 kts 309°
2026-05-07 07:13 33.46808 66.44891 34515 ft 422 kts 308°
2026-05-07 07:13 33.50502 66.39452 34479 ft 423 kts 308°
2026-05-07 07:14 33.54210 66.33985 34482 ft 422 kts 308°
2026-05-07 07:14 33.57918 66.28509 34499 ft 423 kts 308°
2026-05-07 07:15 33.61594 66.23073 34487 ft 423 kts 308°
2026-05-07 07:15 33.65290 66.17600 34520 ft 423 kts 308°
2026-05-07 07:16 33.68992 66.12109 34534 ft 422 kts 308°
2026-05-07 07:16 33.72678 66.06634 34553 ft 422 kts 308°
2026-05-07 07:17 33.76368 66.01144 34548 ft 423 kts 308°
2026-05-07 07:17 33.80059 65.95645 34568 ft 423 kts 308°
2026-05-07 07:18 33.83738 65.90155 34559 ft 423 kts 308°
2026-05-07 07:18 33.87405 65.84676 34569 ft 422 kts 308°
2026-05-07 07:19 33.91089 65.79162 34573 ft 424 kts 308°
2026-05-07 07:19 33.94776 65.73634 34574 ft 425 kts 308°
2026-05-07 07:20 33.98466 65.68095 34567 ft 423 kts 308°
2026-05-07 07:20 34.02143 65.62565 34563 ft 422 kts 308°
2026-05-07 07:21 34.05795 65.57066 34573 ft 423 kts 308°
2026-05-07 07:21 34.09470 65.51530 34567 ft 423 kts 308°
2026-05-07 07:22 34.13132 65.46014 34588 ft 424 kts 308°
2026-05-07 07:22 34.16824 65.40446 34579 ft 424 kts 307°
2026-05-07 07:23 34.20469 65.34937 34586 ft 424 kts 307°
2026-05-07 07:23 34.24155 65.29358 34606 ft 423 kts 307°
2026-05-07 07:24 34.27827 65.23793 34600 ft 424 kts 307°
2026-05-07 07:24 34.31488 65.18235 34591 ft 423 kts 307°
2026-05-07 07:25 34.36967 65.09901 34584 ft 424 kts 307°
2026-05-07 07:26 34.40610 65.04348 34585 ft 423 kts 307°
2026-05-07 07:26 34.44261 64.98775 34571 ft 424 kts 307°
2026-05-07 07:27 34.47921 64.93180 34573 ft 423 kts 307°
2026-05-07 07:27 34.51572 64.87585 34571 ft 424 kts 307°
2026-05-07 07:28 34.55208 64.81995 34557 ft 423 kts 307°
2026-05-07 07:28 34.58835 64.76409 34560 ft 423 kts 307°
2026-05-07 07:29 34.62473 64.70797 34551 ft 424 kts 307°
2026-05-07 07:29 34.66127 64.65153 34553 ft 424 kts 306°
2026-05-07 07:30 34.69754 64.59541 34527 ft 423 kts 307°
2026-05-07 07:30 34.73380 64.53922 34520 ft 425 kts 306°
2026-05-07 07:31 34.77007 64.48292 34472 ft 425 kts 306°
2026-05-07 07:31 34.80660 64.42615 34466 ft 425 kts 306°
2026-05-07 07:32 34.84293 64.36956 34455 ft 425 kts 306°
2026-05-07 07:32 34.87933 64.31280 34465 ft 426 kts 306°
2026-05-07 07:33 34.91556 64.25620 34431 ft 426 kts 306°
2026-05-07 07:33 34.95192 64.19932 34386 ft 424 kts 306°
2026-05-07 07:34 34.98807 64.14265 34362 ft 426 kts 306°
2026-05-07 07:34 35.02443 64.08559 34301 ft 425 kts 306°
2026-05-07 07:35 35.06053 64.02883 34286 ft 427 kts 306°
2026-05-07 07:35 35.09693 63.97150 34266 ft 426 kts 306°
2026-05-07 07:36 35.13325 63.91421 34259 ft 427 kts 306°
2026-05-07 07:36 35.16945 63.85701 34246 ft 426 kts 306°
2026-05-07 07:37 35.20587 63.79938 34208 ft 428 kts 306°
2026-05-07 07:37 35.24195 63.74220 34147 ft 427 kts 306°
2026-05-07 07:38 35.27822 63.68460 34115 ft 427 kts 306°
2026-05-07 07:38 35.31449 63.62700 34124 ft 427 kts 306°
2026-05-07 07:39 35.35088 63.56941 34125 ft 428 kts 305°
2026-05-07 07:39 35.38708 63.51203 34107 ft 426 kts 305°
2026-05-07 07:40 35.42315 63.45475 34096 ft 427 kts 305°
2026-05-07 07:40 35.45934 63.39717 34084 ft 427 kts 306°
2026-05-07 07:41 35.49553 63.33951 34085 ft 427 kts 304°
2026-05-07 07:41 35.53164 63.28188 34070 ft 427 kts 305°
2026-05-07 07:42 35.56778 63.22409 34046 ft 427 kts 304°
2026-05-07 07:42 35.60376 63.16612 34048 ft 427 kts 304°
2026-05-07 07:43 35.63943 63.10794 34028 ft 426 kts 304°
2026-05-07 07:43 35.67486 63.05010 34009 ft 426 kts 304°
2026-05-07 07:44 35.71045 62.99191 33996 ft 427 kts 304°
2026-05-07 07:44 35.74596 62.93377 34008 ft 427 kts 304°
2026-05-07 07:45 35.78165 62.87524 33993 ft 427 kts 304°
2026-05-07 07:45 35.81708 62.81704 33989 ft 427 kts 304°
2026-05-07 07:46 35.85257 62.75865 33995 ft 427 kts 304°
2026-05-07 07:46 35.88805 62.70016 33986 ft 426 kts 304°
2026-05-07 07:47 35.92364 62.64141 33984 ft 428 kts 304°
2026-05-07 07:47 35.95918 62.58263 33972 ft 428 kts 304°
2026-05-07 07:48 35.99479 62.52364 33979 ft 429 kts 304°
2026-05-07 07:48 36.03029 62.46473 33982 ft 428 kts 304°
2026-05-07 07:49 36.06562 62.40600 33992 ft 428 kts 304°
2026-05-07 07:49 36.10113 62.34687 34000 ft 429 kts 303°
2026-05-07 07:50 36.13667 62.28759 34021 ft 428 kts 303°
2026-05-07 07:50 36.17227 62.22811 34027 ft 429 kts 303°
2026-05-07 07:51 36.20745 62.16923 34022 ft 429 kts 303°
2026-05-07 07:51 36.24286 62.10986 34016 ft 428 kts 303°
2026-05-07 07:52 36.27828 62.05036 34007 ft 429 kts 303°
2026-05-07 07:52 36.31346 61.99118 34009 ft 428 kts 303°
2026-05-07 07:53 36.34892 61.93141 34002 ft 429 kts 303°
2026-05-07 07:53 36.38406 61.87209 33997 ft 429 kts 303°
2026-05-07 07:54 36.41931 61.81246 33989 ft 430 kts 303°
2026-05-07 07:54 36.45444 61.75294 33987 ft 429 kts 303°
2026-05-07 07:55 36.48966 61.69317 33981 ft 429 kts 303°
2026-05-07 07:55 36.52485 61.63334 33976 ft 430 kts 303°
2026-05-07 07:56 36.55998 61.57350 33970 ft 430 kts 303°
2026-05-07 07:56 36.59511 61.51356 33969 ft 430 kts 303°
2026-05-07 07:57 36.63025 61.45348 33961 ft 429 kts 302°
2026-05-07 07:57 36.66488 61.39272 33968 ft 431 kts 302°
2026-05-07 07:58 36.69932 61.33211 33980 ft 430 kts 301°
2026-05-07 07:58 36.73375 61.27148 33985 ft 429 kts 301°
2026-05-07 07:59 36.76826 61.21059 33979 ft 429 kts 301°
2026-05-07 07:59 36.80254 61.15002 33978 ft 430 kts 301°
2026-05-07 08:00 36.83708 61.08888 33981 ft 430 kts 301°
2026-05-07 08:00 36.87128 61.02824 33986 ft 429 kts 301°
2026-05-07 08:01 36.90539 60.96766 33985 ft 428 kts 301°
2026-05-07 08:01 36.93982 60.90639 33972 ft 430 kts 301°
2026-05-07 08:02 36.97393 60.84558 33978 ft 430 kts 301°
2026-05-07 08:02 37.01031 60.78601 33975 ft 433 kts 304°
2026-05-07 08:03 37.04769 60.72683 33978 ft 433 kts 304°
2026-05-07 08:03 37.08475 60.66775 33982 ft 433 kts 304°
2026-05-07 08:04 37.12196 60.60819 33975 ft 435 kts 304°
2026-05-07 08:04 37.15904 60.54866 33978 ft 433 kts 304°
2026-05-07 08:05 37.19606 60.48907 33979 ft 435 kts 304°
2026-05-07 08:05 37.23318 60.42921 33981 ft 435 kts 304°
2026-05-07 08:06 37.27047 60.36897 33979 ft 435 kts 303°
2026-05-07 08:06 37.30741 60.30915 33991 ft 436 kts 303°
2026-05-07 08:07 37.34450 60.24901 33988 ft 436 kts 303°
2026-05-07 08:07 37.38160 60.18872 33989 ft 437 kts 303°
2026-05-07 08:08 37.41879 60.12819 33984 ft 437 kts 303°
2026-05-07 08:08 37.45596 60.06758 33984 ft 439 kts 303°
2026-05-07 08:09 37.49292 60.00719 33993 ft 439 kts 303°
2026-05-07 08:09 37.53026 59.94606 33987 ft 440 kts 303°
2026-05-07 08:10 37.56743 59.88512 33996 ft 441 kts 303°
2026-05-07 08:10 37.60450 59.82423 33989 ft 440 kts 303°
2026-05-07 08:11 37.64179 59.76284 33991 ft 442 kts 303°
2026-05-07 08:11 37.67916 59.70123 33983 ft 443 kts 303°
2026-05-07 08:12 37.71640 59.63971 33990 ft 444 kts 303°
2026-05-07 08:12 37.75393 59.57761 33994 ft 443 kts 303°
2026-05-07 08:13 37.79124 59.51573 33992 ft 444 kts 303°
2026-05-07 08:13 37.82852 59.45379 33991 ft 445 kts 303°
2026-05-07 08:14 37.86590 59.39159 33985 ft 443 kts 303°
2026-05-07 08:14 37.90154 59.32800 33999 ft 443 kts 297°
2026-05-07 08:15 37.93346 59.26218 33996 ft 442 kts 297°
2026-05-07 08:15 37.96564 59.19553 33989 ft 444 kts 297°
2026-05-07 08:16 37.99775 59.12889 33995 ft 446 kts 297°
2026-05-07 08:16 38.02994 59.06197 33991 ft 444 kts 297°
2026-05-07 08:17 38.06197 58.99522 33994 ft 446 kts 297°
2026-05-07 08:17 38.09423 58.92787 33997 ft 446 kts 297°
2026-05-07 08:18 38.12611 58.86119 33992 ft 444 kts 297°
2026-05-07 08:18 38.15819 58.79390 33999 ft 446 kts 297°
2026-05-07 08:19 38.19013 58.72681 33999 ft 445 kts 297°
2026-05-07 08:19 38.22201 58.65970 34005 ft 445 kts 297°
2026-05-07 08:20 38.25395 58.59231 34004 ft 444 kts 297°
2026-05-07 08:20 38.28581 58.52496 34013 ft 444 kts 296°
2026-05-07 08:21 38.31743 58.45796 34016 ft 445 kts 297°
2026-05-07 08:21 38.34914 58.39065 34026 ft 445 kts 296°
2026-05-07 08:22 38.38102 58.32284 34021 ft 445 kts 296°
2026-05-07 08:22 38.41000 58.25413 34039 ft 441 kts 290°
2026-05-07 08:23 38.43535 58.18279 34035 ft 441 kts 290°
2026-05-07 08:23 38.46053 58.11160 34037 ft 441 kts 290°
2026-05-07 08:24 38.48571 58.04026 34032 ft 442 kts 290°
2026-05-07 08:24 38.51069 57.96931 34041 ft 441 kts 290°
2026-05-07 08:25 38.53566 57.89824 34028 ft 441 kts 290°
2026-05-07 08:25 38.56060 57.82706 34037 ft 439 kts 290°
2026-05-07 08:26 38.59774 57.72077 34037 ft 438 kts 290°
2026-05-07 08:26 38.62249 57.64934 34022 ft 439 kts 288°
2026-05-07 08:27 38.63308 57.61290 34237 ft 442 kts 286°
2026-05-07 08:27 38.64329 57.57650 34825 ft 437 kts 286°
2026-05-07 08:27 38.65351 57.54020 35517 ft 428 kts 285°
2026-05-07 08:27 38.66349 57.50485 35951 ft 427 kts 285°
2026-05-07 08:28 38.68373 57.43332 36032 ft 425 kts 285°
2026-05-07 08:28 38.70378 57.36262 36035 ft 424 kts 285°
2026-05-07 08:29 38.72387 57.29166 36044 ft 424 kts 285°
2026-05-07 08:29 38.74389 57.22090 36043 ft 424 kts 285°
2026-05-07 08:30 38.76379 57.15039 36041 ft 424 kts 285°
2026-05-07 08:30 38.78382 57.07924 36036 ft 424 kts 285°
2026-05-07 08:31 38.80366 57.00861 36047 ft 422 kts 285°
2026-05-07 08:31 38.82340 56.93814 36043 ft 422 kts 285°
2026-05-07 08:32 38.84318 56.86729 36049 ft 423 kts 284°
2026-05-07 08:32 38.86283 56.79676 36045 ft 422 kts 285°
2026-05-07 08:33 38.88249 56.72604 36048 ft 421 kts 284°
2026-05-07 08:33 38.90210 56.65525 36035 ft 421 kts 284°
2026-05-07 08:34 38.92152 56.58495 36044 ft 420 kts 284°
2026-05-07 08:34 38.94098 56.51435 36047 ft 422 kts 284°
2026-05-07 08:35 38.96046 56.44344 36039 ft 421 kts 284°
2026-05-07 08:35 38.97986 56.37268 36034 ft 422 kts 284°
2026-05-07 08:36 38.99938 56.30124 36044 ft 422 kts 284°
2026-05-07 08:36 39.01640 56.22996 36043 ft 418 kts 281°
2026-05-07 08:37 39.03259 56.15834 36056 ft 418 kts 281°
2026-05-07 08:37 39.04887 56.08668 36068 ft 418 kts 281°
2026-05-07 08:38 39.06509 56.01532 36073 ft 419 kts 281°
2026-05-07 08:38 39.08141 55.94342 36081 ft 419 kts 281°
2026-05-07 08:39 39.09772 55.87144 36074 ft 419 kts 281°
2026-05-07 08:39 39.11390 55.79980 36061 ft 418 kts 281°
2026-05-07 08:40 39.13009 55.72790 36064 ft 420 kts 281°
2026-05-07 08:40 39.14630 55.65572 36056 ft 419 kts 281°
2026-05-07 08:41 39.16239 55.58389 36056 ft 418 kts 281°
2026-05-07 08:41 39.17832 55.51242 36061 ft 418 kts 281°
2026-05-07 08:42 39.19427 55.44056 36066 ft 419 kts 281°
2026-05-07 08:42 39.21024 55.36836 36065 ft 419 kts 281°
2026-05-07 08:43 39.22618 55.29611 36063 ft 419 kts 280°
2026-05-07 08:43 39.24206 55.22387 36069 ft 419 kts 280°
2026-05-07 08:44 39.25783 55.15190 36068 ft 420 kts 280°
2026-05-07 08:44 39.27360 55.07968 36080 ft 420 kts 280°
2026-05-07 08:45 39.28930 55.00760 36076 ft 419 kts 280°
2026-05-07 08:45 39.30504 54.93503 36079 ft 419 kts 280°
2026-05-07 08:46 39.32063 54.86296 36073 ft 419 kts 280°
2026-05-07 08:46 39.33621 54.79066 36074 ft 419 kts 280°
2026-05-07 08:47 39.35173 54.71843 36074 ft 419 kts 280°
2026-05-07 08:47 39.36724 54.64600 36078 ft 420 kts 280°
2026-05-07 08:48 39.38264 54.57385 36076 ft 419 kts 280°
2026-05-07 08:48 39.39813 54.50100 36078 ft 420 kts 280°
2026-05-07 08:49 39.41344 54.42882 36080 ft 419 kts 280°
2026-05-07 08:49 39.42880 54.35612 36079 ft 419 kts 280°
2026-05-07 08:50 39.44403 54.28377 36080 ft 418 kts 280°
2026-05-07 08:50 39.45928 54.21106 36077 ft 420 kts 279°
2026-05-07 08:51 39.47445 54.13853 36087 ft 420 kts 279°
2026-05-07 08:51 39.48952 54.06633 36081 ft 418 kts 281°
2026-05-07 08:52 39.51311 53.99614 36081 ft 432 kts 295°
2026-05-07 08:52 39.54748 53.93212 36086 ft 435 kts 298°
2026-05-07 08:53 39.58230 53.86844 36084 ft 435 kts 298°
2026-05-07 08:53 39.61698 53.80460 36083 ft 434 kts 297°
2026-05-07 08:54 39.65152 53.74074 36084 ft 433 kts 298°
2026-05-07 08:54 39.68608 53.67661 36082 ft 434 kts 297°
2026-05-07 08:55 39.72051 53.61257 36082 ft 434 kts 297°
2026-05-07 08:55 39.75482 53.54861 36081 ft 433 kts 297°
2026-05-07 08:56 39.78913 53.48447 36081 ft 434 kts 297°
2026-05-07 08:56 39.82347 53.42018 36081 ft 433 kts 297°
2026-05-07 08:57 39.85775 53.35585 36087 ft 434 kts 297°
2026-05-07 08:57 39.89188 53.29167 36102 ft 433 kts 297°
2026-05-07 08:58 39.92614 53.22712 36112 ft 433 kts 297°
2026-05-07 08:58 39.96022 53.16277 36111 ft 434 kts 296°
2026-05-07 08:59 39.99440 53.09811 36108 ft 434 kts 296°
2026-05-07 08:59 40.02872 53.03304 36110 ft 435 kts 296°
2026-05-07 09:00 40.06280 52.96848 36105 ft 436 kts 297°
2026-05-07 09:00 40.09726 52.90330 36107 ft 436 kts 297°
2026-05-07 09:01 40.13139 52.83863 36094 ft 435 kts 297°
2026-05-07 09:01 40.16562 52.77359 36098 ft 435 kts 297°
2026-05-07 09:02 40.19968 52.70873 36099 ft 435 kts 297°
2026-05-07 09:02 40.23384 52.64357 36091 ft 436 kts 296°
2026-05-07 09:03 40.26320 52.57567 36101 ft 424 kts 284°
2026-05-07 09:03 40.27938 52.50252 36107 ft 419 kts 278°
2026-05-07 09:04 40.29350 52.42903 36104 ft 419 kts 278°
2026-05-07 09:04 40.30764 52.35486 36118 ft 419 kts 278°
2026-05-07 09:05 40.32166 52.28098 36120 ft 419 kts 278°
2026-05-07 09:05 40.33559 52.20720 36119 ft 419 kts 278°
2026-05-07 09:06 40.34946 52.13350 36120 ft 420 kts 277°
2026-05-07 09:06 40.36335 52.05938 36117 ft 420 kts 277°
2026-05-07 09:07 40.37722 51.98501 36111 ft 421 kts 278°
2026-05-07 09:07 40.39100 51.91090 36113 ft 421 kts 278°
2026-05-07 09:08 40.40481 51.83632 36115 ft 421 kts 278°
2026-05-07 09:08 40.41861 51.76150 36112 ft 421 kts 278°
2026-05-07 09:09 40.43234 51.68682 36110 ft 422 kts 278°
2026-05-07 09:09 40.44594 51.61248 36113 ft 424 kts 278°
2026-05-07 09:10 40.45964 51.53735 36101 ft 423 kts 278°
2026-05-07 09:10 40.47008 51.46208 36107 ft 420 kts 272°
2026-05-07 09:11 40.47725 51.38633 36103 ft 420 kts 272°
2026-05-07 09:11 40.48440 51.30999 36118 ft 419 kts 272°
2026-05-07 09:12 40.49142 51.23443 36119 ft 419 kts 272°
2026-05-07 09:12 40.49840 51.15866 36127 ft 421 kts 272°
2026-05-07 09:13 40.50535 51.08286 36111 ft 421 kts 272°
2026-05-07 09:13 40.51231 51.00622 36114 ft 420 kts 272°
2026-05-07 09:14 40.51916 50.93037 36111 ft 420 kts 272°
2026-05-07 09:14 40.52820 50.85467 36111 ft 424 kts 275°
2026-05-07 09:15 40.53851 50.77884 36116 ft 423 kts 275°
2026-05-07 09:15 40.54867 50.70264 36110 ft 424 kts 275°
2026-05-07 09:16 40.55866 50.62672 36109 ft 425 kts 275°
2026-05-07 09:16 40.56858 50.55066 36107 ft 424 kts 275°
2026-05-07 09:17 40.57844 50.47442 36103 ft 424 kts 275°
2026-05-07 09:17 40.58828 50.39791 36098 ft 424 kts 275°
2026-05-07 09:18 40.59803 50.32165 36113 ft 425 kts 274°
2026-05-07 09:18 40.60777 50.24507 36109 ft 425 kts 274°
2026-05-07 09:19 40.61741 50.16889 36106 ft 424 kts 274°
2026-05-07 09:19 40.62705 50.09222 36111 ft 425 kts 274°
2026-05-07 09:20 40.63657 50.01603 36107 ft 425 kts 275°
2026-05-07 09:20 40.64616 49.93896 36101 ft 426 kts 274°
2026-05-07 09:21 40.65565 49.86219 36097 ft 425 kts 274°
2026-05-07 09:21 40.66501 49.78605 36094 ft 426 kts 274°
2026-05-07 09:22 40.67441 49.70918 36092 ft 426 kts 274°
2026-05-07 09:22 40.68375 49.63235 36088 ft 426 kts 275°
2026-05-07 09:23 40.69307 49.55517 36082 ft 427 kts 275°
2026-05-07 09:23 40.70233 49.47812 36083 ft 426 kts 274°
2026-05-07 09:24 40.71156 49.40053 36085 ft 427 kts 274°
2026-05-07 09:24 40.72071 49.32320 36100 ft 428 kts 274°
2026-05-07 09:25 40.72781 49.24562 36096 ft 422 kts 266°
2026-05-07 09:25 40.72234 49.16924 36105 ft 421 kts 259°
2026-05-07 09:26 40.71409 49.09323 36103 ft 420 kts 259°
2026-05-07 09:26 40.70576 49.01718 36097 ft 419 kts 259°
2026-05-07 09:27 40.69740 48.94139 36103 ft 419 kts 259°
2026-05-07 09:28 40.68480 48.82806 36101 ft 420 kts 259°
2026-05-07 09:28 40.67629 48.75216 36111 ft 420 kts 259°
2026-05-07 09:29 40.66772 48.67611 36110 ft 419 kts 259°
2026-05-07 09:29 40.65934 48.60222 36114 ft 420 kts 259°
2026-05-07 09:30 40.65070 48.52644 36119 ft 420 kts 259°
2026-05-07 09:30 40.64194 48.45019 36122 ft 421 kts 259°
2026-05-07 09:31 40.63322 48.37466 36113 ft 421 kts 259°
2026-05-07 09:31 40.62437 48.29842 36124 ft 421 kts 258°
2026-05-07 09:32 40.61552 48.22269 36113 ft 420 kts 258°
2026-05-07 09:32 40.60659 48.14671 36114 ft 422 kts 258°
2026-05-07 09:33 40.59769 48.07114 36111 ft 422 kts 258°
2026-05-07 09:33 40.58869 47.99514 36115 ft 421 kts 258°
2026-05-07 09:34 40.58430 47.91828 36102 ft 427 kts 268°
2026-05-07 09:34 40.58688 47.83997 36103 ft 427 kts 269°
2026-05-07 09:35 40.58944 47.76257 36098 ft 427 kts 269°
2026-05-07 09:35 40.59195 47.68469 36096 ft 427 kts 269°
2026-05-07 09:36 40.59439 47.60668 36100 ft 427 kts 269°
2026-05-07 09:36 40.59676 47.52871 36100 ft 428 kts 269°
2026-05-07 09:37 40.59909 47.45051 36093 ft 429 kts 269°
2026-05-07 09:37 40.60136 47.37281 36094 ft 430 kts 269°
2026-05-07 09:38 40.60358 47.29470 36096 ft 429 kts 268°
2026-05-07 09:38 40.60576 47.21608 36089 ft 431 kts 268°
2026-05-07 09:39 40.61118 47.13782 36089 ft 432 kts 273°
2026-05-07 09:39 40.61932 47.05964 36086 ft 433 kts 273°
2026-05-07 09:40 40.62740 46.98128 36083 ft 435 kts 273°
2026-05-07 09:40 40.63541 46.90270 36085 ft 434 kts 274°
2026-05-07 09:40 40.63939 46.86339 36225 ft 436 kts 273°
2026-05-07 09:41 40.64337 46.82400 36101 ft 431 kts 273°
2026-05-07 09:41 40.64725 46.78548 35864 ft 430 kts 273°
2026-05-07 09:41 40.65099 46.74816 36067 ft 433 kts 273°
2026-05-07 09:42 40.65885 46.66917 36321 ft 437 kts 274°
2026-05-07 09:42 40.66281 46.62919 36158 ft 437 kts 273°
2026-05-07 09:42 40.66670 46.58991 36102 ft 431 kts 273°
2026-05-07 09:43 40.67441 46.51131 36099 ft 434 kts 273°
2026-05-07 09:43 40.68206 46.43283 36099 ft 432 kts 273°
2026-05-07 09:44 40.68966 46.35429 36098 ft 433 kts 274°
2026-05-07 09:44 40.69720 46.27584 36105 ft 432 kts 273°
2026-05-07 09:45 40.70468 46.19743 36106 ft 433 kts 273°
2026-05-07 09:45 40.71206 46.11943 36121 ft 434 kts 273°
2026-05-07 09:46 40.71944 46.04102 36125 ft 432 kts 273°
2026-05-07 09:46 40.72675 45.96260 36128 ft 434 kts 273°
2026-05-07 09:47 40.73409 45.88326 36132 ft 436 kts 273°
2026-05-07 09:47 40.74133 45.80453 36144 ft 434 kts 273°
2026-05-07 09:48 40.74852 45.72569 36145 ft 434 kts 273°
2026-05-07 09:48 40.75567 45.64669 36139 ft 435 kts 273°
2026-05-07 09:49 40.76273 45.56803 36131 ft 435 kts 273°
2026-05-07 09:49 40.76972 45.48901 36133 ft 434 kts 271°
2026-05-07 09:50 40.77341 45.40992 36134 ft 434 kts 270°
2026-05-07 09:50 40.77683 45.33033 36141 ft 433 kts 269°
2026-05-07 09:51 40.78027 45.25167 36138 ft 432 kts 269°
2026-05-07 09:51 40.78375 45.17234 36135 ft 434 kts 269°
2026-05-07 09:52 40.78719 45.09325 36140 ft 433 kts 269°
2026-05-07 09:52 40.79060 45.01413 36141 ft 433 kts 269°
2026-05-07 09:53 40.79395 44.93528 36140 ft 435 kts 269°
2026-05-07 09:53 40.79728 44.85553 35888 ft 434 kts 269°
2026-05-07 09:53 40.79890 44.81648 36043 ft 434 kts 269°
2026-05-07 09:54 40.80054 44.77628 36125 ft 439 kts 269°
2026-05-07 09:54 40.80378 44.69632 36126 ft 438 kts 270°
2026-05-07 09:55 40.80696 44.61637 36130 ft 438 kts 270°
2026-05-07 09:55 40.81011 44.53602 36127 ft 438 kts 270°
2026-05-07 09:56 40.81318 44.45602 36130 ft 440 kts 270°
2026-05-07 09:56 40.81621 44.37585 36133 ft 440 kts 270°
2026-05-07 09:57 40.81918 44.29551 36147 ft 441 kts 269°
2026-05-07 09:57 40.82211 44.21484 36154 ft 440 kts 269°
2026-05-07 09:58 40.82499 44.13398 36165 ft 441 kts 269°
2026-05-07 09:58 40.82781 44.05328 36174 ft 443 kts 269°
2026-05-07 09:59 40.83057 43.97259 36169 ft 442 kts 269°
2026-05-07 09:59 40.83329 43.89163 36164 ft 442 kts 269°
2026-05-07 10:00 40.83595 43.81078 36371 ft 443 kts 269°
2026-05-07 10:00 40.83727 43.77020 36191 ft 441 kts 269°
2026-05-07 10:00 40.83856 43.73000 36165 ft 438 kts 269°
2026-05-07 10:01 40.84155 43.64999 36170 ft 442 kts 271°
2026-05-07 10:01 40.84629 43.56874 36176 ft 444 kts 271°
2026-05-07 10:02 40.85090 43.48790 36170 ft 444 kts 271°
2026-05-07 10:02 40.85540 43.40711 36172 ft 444 kts 271°
2026-05-07 10:03 40.85980 43.32632 36190 ft 443 kts 271°
2026-05-07 10:03 40.86417 43.24486 36199 ft 445 kts 271°
2026-05-07 10:04 40.86845 43.16378 36192 ft 442 kts 271°
2026-05-07 10:04 40.87264 43.08342 36188 ft 439 kts 271°
2026-05-07 10:05 40.87675 43.00327 36180 ft 436 kts 271°
2026-05-07 10:05 40.88078 42.92358 36177 ft 440 kts 271°
2026-05-07 10:06 40.88483 42.84215 36172 ft 449 kts 271°
2026-05-07 10:06 40.88886 42.76048 36171 ft 446 kts 271°
2026-05-07 10:07 40.89281 42.67913 36168 ft 443 kts 271°
2026-05-07 10:07 40.89666 42.59842 36161 ft 440 kts 271°
2026-05-07 10:08 40.90043 42.51837 36151 ft 436 kts 271°
2026-05-07 10:08 40.90414 42.43844 36153 ft 442 kts 271°
2026-05-07 10:09 40.90786 42.35664 36152 ft 451 kts 271°
2026-05-07 10:09 40.91157 42.27432 36150 ft 449 kts 271°
2026-05-07 10:10 40.91519 42.19249 36146 ft 446 kts 271°
2026-05-07 10:10 40.91875 42.11084 36146 ft 443 kts 271°
2026-05-07 10:11 40.92222 42.02974 36146 ft 452 kts 271°
2026-05-07 10:11 40.92572 41.94654 36159 ft 452 kts 271°
2026-05-07 10:12 40.92913 41.86446 36189 ft 449 kts 271°
2026-05-07 10:12 40.93246 41.78254 36204 ft 446 kts 271°
2026-05-07 10:13 40.93576 41.69990 36200 ft 455 kts 271°
2026-05-07 10:13 40.93903 41.61654 36197 ft 453 kts 271°
2026-05-07 10:14 40.94222 41.53379 36182 ft 452 kts 271°
2026-05-07 10:14 40.94535 41.45078 36161 ft 457 kts 271°
2026-05-07 10:15 40.94847 41.36697 36148 ft 455 kts 271°
2026-05-07 10:15 40.95149 41.28385 36151 ft 453 kts 271°
2026-05-07 10:16 40.95443 41.20151 36153 ft 451 kts 271°
2026-05-07 10:16 40.95730 41.11927 36157 ft 448 kts 271°
2026-05-07 10:17 40.96009 41.03762 36174 ft 450 kts 271°
2026-05-07 10:17 40.96290 40.95356 36187 ft 459 kts 271°
2026-05-07 10:18 40.96565 40.86967 36193 ft 457 kts 271°
2026-05-07 10:18 40.96833 40.78598 36194 ft 455 kts 271°
2026-05-07 10:19 40.97092 40.70338 36195 ft 454 kts 271°
2026-05-07 10:19 40.97348 40.61930 36198 ft 461 kts 272°
2026-05-07 10:20 40.97600 40.53500 36192 ft 459 kts 272°
2026-05-07 10:20 40.97844 40.45104 36186 ft 457 kts 272°
2026-05-07 10:21 40.98081 40.36769 36191 ft 458 kts 272°
2026-05-07 10:21 40.98315 40.28287 36201 ft 461 kts 271°
2026-05-07 10:22 40.98542 40.19855 36200 ft 459 kts 271°
2026-05-07 10:22 40.98759 40.11460 36197 ft 460 kts 271°
2026-05-07 10:23 40.98970 40.03026 36205 ft 460 kts 271°
2026-05-07 10:23 40.99176 39.94596 36203 ft 462 kts 271°
2026-05-07 10:24 40.99375 39.86168 36208 ft 460 kts 272°
2026-05-07 10:24 40.99694 39.77753 36204 ft 460 kts 277°
2026-05-07 10:25 41.00501 39.69335 36190 ft 463 kts 277°
2026-05-07 10:25 41.01316 39.60892 36186 ft 461 kts 277°
2026-05-07 10:26 41.02115 39.52505 36191 ft 461 kts 277°
2026-05-07 10:26 41.02910 39.44086 36182 ft 462 kts 277°
2026-05-07 10:27 41.03693 39.35726 36187 ft 461 kts 277°
2026-05-07 10:27 41.04479 39.27249 36186 ft 465 kts 277°
2026-05-07 10:28 41.05255 39.18819 36177 ft 463 kts 277°
2026-05-07 10:28 41.06029 39.10373 36183 ft 463 kts 277°
2026-05-07 10:29 41.06810 39.01946 36182 ft 465 kts 277°
2026-05-07 10:29 41.07591 38.93446 36175 ft 463 kts 277°
2026-05-07 10:30 41.08744 38.80756 36183 ft 464 kts 277°
2026-05-07 10:30 41.09504 38.72306 36183 ft 463 kts 277°
2026-05-07 10:31 41.10250 38.63816 36189 ft 466 kts 277°
2026-05-07 10:31 41.10977 38.55300 36188 ft 465 kts 277°
2026-05-07 10:32 41.11684 38.46840 36185 ft 463 kts 277°
2026-05-07 10:32 41.12384 38.38421 36195 ft 462 kts 277°
2026-05-07 10:33 41.13085 38.29903 36192 ft 466 kts 277°
2026-05-07 10:33 41.13782 38.21405 36195 ft 465 kts 277°
2026-05-07 10:34 41.14473 38.12952 36191 ft 464 kts 277°
2026-05-07 10:34 41.15159 38.04467 36192 ft 464 kts 277°
2026-05-07 10:35 41.15842 37.95959 36180 ft 467 kts 277°
2026-05-07 10:35 41.16522 37.87397 36188 ft 465 kts 277°
2026-05-07 10:36 41.17244 37.78916 36180 ft 464 kts 278°
2026-05-07 10:36 41.17960 37.70491 36184 ft 462 kts 278°
2026-05-07 10:37 41.18670 37.62052 36180 ft 461 kts 278°
2026-05-07 10:37 41.19150 37.53571 36178 ft 460 kts 277°
2026-05-07 10:38 41.19771 37.45070 36174 ft 468 kts 277°
2026-05-07 10:38 41.20409 37.36523 36180 ft 466 kts 278°
2026-05-07 10:39 41.21038 37.27990 36185 ft 465 kts 277°
2026-05-07 10:39 41.21669 37.19460 36184 ft 464 kts 277°
2026-05-07 10:40 41.22334 37.10963 36173 ft 463 kts 278°
2026-05-07 10:40 41.22989 37.02520 36174 ft 462 kts 278°
2026-05-07 10:41 41.23640 36.94021 36171 ft 466 kts 278°
2026-05-07 10:41 41.24284 36.85515 36170 ft 465 kts 278°
2026-05-07 10:42 41.24922 36.76995 36179 ft 464 kts 278°
2026-05-07 10:42 41.25553 36.68485 36163 ft 464 kts 278°
2026-05-07 10:43 41.26177 36.59991 36160 ft 463 kts 278°
2026-05-07 10:43 41.27356 36.51696 36159 ft 461 kts 290°
2026-05-07 10:44 41.29401 36.43660 36168 ft 459 kts 291°
2026-05-07 10:44 41.31451 36.35641 36173 ft 458 kts 291°
2026-05-07 10:45 41.33497 36.27599 36167 ft 458 kts 290°
2026-05-07 10:45 41.35513 36.19639 36162 ft 457 kts 290°
2026-05-07 10:46 41.37534 36.11628 36171 ft 458 kts 290°
2026-05-07 10:46 41.39556 36.03583 36176 ft 459 kts 291°
2026-05-07 10:47 41.41569 35.95541 36171 ft 459 kts 291°
2026-05-07 10:47 41.43579 35.87489 36172 ft 458 kts 290°
2026-05-07 10:48 41.45569 35.79490 36174 ft 457 kts 291°
2026-05-07 10:48 41.47554 35.71479 36166 ft 456 kts 291°
2026-05-07 10:49 41.49530 35.63477 36174 ft 456 kts 291°
2026-05-07 10:49 41.51509 35.55439 36171 ft 455 kts 291°
2026-05-07 10:50 41.53468 35.47455 36177 ft 454 kts 291°
2026-05-07 10:50 41.55418 35.39479 36177 ft 455 kts 291°
2026-05-07 10:51 41.57369 35.31472 36182 ft 454 kts 291°
2026-05-07 10:51 41.59310 35.23476 36182 ft 453 kts 291°
2026-05-07 10:52 41.61236 35.15517 36179 ft 452 kts 291°
2026-05-07 10:52 41.63162 35.07530 36183 ft 451 kts 291°
2026-05-07 10:53 41.65071 34.99585 36180 ft 451 kts 291°
2026-05-07 10:53 41.66978 34.91622 36167 ft 450 kts 291°
2026-05-07 10:54 41.67923 34.87663 35986 ft 450 kts 291°
2026-05-07 10:54 41.68881 34.83651 36150 ft 455 kts 291°
2026-05-07 10:54 41.70789 34.75628 36165 ft 454 kts 291°
2026-05-07 10:55 41.72692 34.67594 36172 ft 453 kts 291°
2026-05-07 10:55 41.74587 34.59566 36171 ft 452 kts 291°
2026-05-07 10:56 41.76468 34.51573 36168 ft 452 kts 291°
2026-05-07 10:56 41.78346 34.43564 36169 ft 453 kts 291°
2026-05-07 10:57 41.80232 34.35491 36174 ft 452 kts 291°
2026-05-07 10:57 41.82095 34.27487 36162 ft 452 kts 290°
2026-05-07 10:58 41.83957 34.19458 36169 ft 452 kts 291°
2026-05-07 10:58 41.85816 34.11414 36160 ft 452 kts 291°
2026-05-07 10:59 41.87659 34.03415 36152 ft 453 kts 291°
2026-05-07 10:59 41.89509 33.95351 36152 ft 452 kts 291°
2026-05-07 11:00 41.91353 33.87284 36154 ft 452 kts 291°
2026-05-07 11:00 41.93184 33.79248 36152 ft 452 kts 291°
2026-05-07 11:01 41.95007 33.71218 36150 ft 452 kts 291°
2026-05-07 11:01 41.96644 33.63100 36147 ft 452 kts 288°
2026-05-07 11:02 41.98190 33.54967 36161 ft 452 kts 288°
2026-05-07 11:02 41.99745 33.46810 36153 ft 452 kts 288°
2026-05-07 11:03 42.01301 33.38640 36145 ft 451 kts 288°
2026-05-07 11:03 42.02840 33.30539 36152 ft 450 kts 287°
2026-05-07 11:04 42.04390 33.22362 36149 ft 450 kts 287°
2026-05-07 11:04 42.05919 33.14257 36153 ft 449 kts 288°
2026-05-07 11:05 42.07446 33.06167 36148 ft 448 kts 288°
2026-05-07 11:05 42.09104 32.98100 36152 ft 451 kts 289°
2026-05-07 11:06 42.10774 32.89970 36158 ft 450 kts 288°
2026-05-07 11:06 42.12416 32.81924 36162 ft 449 kts 288°
2026-05-07 11:07 42.14061 32.73823 36161 ft 449 kts 289°
2026-05-07 11:07 42.15689 32.65758 36161 ft 448 kts 288°
2026-05-07 11:08 42.17313 32.57685 36159 ft 448 kts 288°
2026-05-07 11:08 42.18929 32.49603 36153 ft 448 kts 288°
2026-05-07 11:09 42.20543 32.41497 36150 ft 448 kts 289°
2026-05-07 11:09 42.22131 32.33488 36154 ft 447 kts 288°
2026-05-07 11:10 42.23730 32.25388 36156 ft 446 kts 288°
2026-05-07 11:10 42.25308 32.17361 36157 ft 446 kts 288°
2026-05-07 11:11 42.26889 32.09259 36158 ft 446 kts 288°
2026-05-07 11:11 42.28465 32.01205 36158 ft 445 kts 288°
2026-05-07 11:12 42.30025 31.93200 36160 ft 444 kts 288°
2026-05-07 11:12 42.31587 31.85150 36159 ft 444 kts 288°
2026-05-07 11:13 42.33140 31.77115 36157 ft 443 kts 288°
2026-05-07 11:13 42.34685 31.69083 36156 ft 442 kts 288°
2026-05-07 11:14 42.36221 31.61071 36151 ft 442 kts 288°
2026-05-07 11:14 42.37752 31.53050 36146 ft 441 kts 288°
2026-05-07 11:15 42.39269 31.45070 36144 ft 440 kts 288°
2026-05-07 11:15 42.40787 31.37046 36145 ft 439 kts 288°
2026-05-07 11:16 42.42282 31.29116 36148 ft 439 kts 288°
2026-05-07 11:16 42.43787 31.21099 36147 ft 438 kts 288°
2026-05-07 11:17 42.45268 31.13181 36150 ft 441 kts 288°
2026-05-07 11:17 42.46772 31.05091 36149 ft 441 kts 288°
2026-05-07 11:18 42.48256 30.97073 36146 ft 440 kts 288°
2026-05-07 11:18 42.49727 30.89089 36149 ft 439 kts 288°
2026-05-07 11:19 42.51193 30.81099 36148 ft 439 kts 288°
2026-05-07 11:19 42.52653 30.73105 36146 ft 438 kts 288°
2026-05-07 11:20 42.54116 30.65064 36146 ft 441 kts 288°
2026-05-07 11:20 42.55566 30.57062 36142 ft 440 kts 287°
2026-05-07 11:21 42.57017 30.49015 36140 ft 440 kts 287°
2026-05-07 11:21 42.58461 30.40975 36144 ft 440 kts 287°
2026-05-07 11:22 42.59901 30.32919 36137 ft 440 kts 287°
2026-05-07 11:22 42.62012 30.25285 36138 ft 433 kts 301°
2026-05-07 11:23 42.65459 30.18618 36135 ft 432 kts 309°
2026-05-07 11:23 42.69129 30.12186 36134 ft 432 kts 309°
2026-05-07 11:24 42.72794 30.05732 36138 ft 433 kts 309°
2026-05-07 11:24 42.76449 29.99270 36135 ft 433 kts 309°
2026-05-07 11:25 42.80119 29.92762 36135 ft 433 kts 309°
2026-05-07 11:25 42.83753 29.86302 36134 ft 433 kts 309°
2026-05-07 11:26 42.87405 29.79794 36133 ft 432 kts 309°
2026-05-07 11:26 42.91027 29.73325 36132 ft 431 kts 309°
2026-05-07 11:27 42.94655 29.66832 36132 ft 430 kts 309°
2026-05-07 11:27 42.98272 29.60343 36129 ft 430 kts 309°
2026-05-07 11:28 43.01889 29.53839 36130 ft 430 kts 309°
2026-05-07 11:28 43.05479 29.47370 36128 ft 430 kts 309°
2026-05-07 11:29 43.09090 29.40849 36131 ft 433 kts 309°
2026-05-07 11:29 43.12729 29.34263 36140 ft 432 kts 308°
2026-05-07 11:30 43.16336 29.27720 36142 ft 432 kts 308°
2026-05-07 11:30 43.19947 29.21156 36140 ft 432 kts 308°
2026-05-07 11:31 43.23544 29.14602 36140 ft 432 kts 308°
2026-05-07 11:31 43.27138 29.08040 36144 ft 432 kts 308°
2026-05-07 11:32 43.32528 28.98170 36139 ft 432 kts 308°
2026-05-07 11:33 43.36112 28.91589 36136 ft 432 kts 308°
2026-05-07 11:33 43.39701 28.84985 36131 ft 432 kts 308°
2026-05-07 11:34 43.43267 28.78407 36133 ft 432 kts 308°
2026-05-07 11:34 43.46842 28.71798 36130 ft 432 kts 308°
2026-05-07 11:35 43.50437 28.65138 36128 ft 432 kts 308°
2026-05-07 11:35 43.54005 28.58513 36120 ft 432 kts 308°
2026-05-07 11:36 43.57548 28.51918 36124 ft 433 kts 308°
2026-05-07 11:36 43.61142 28.45213 36117 ft 432 kts 308°
2026-05-07 11:37 43.64698 28.38566 36114 ft 433 kts 308°
2026-05-07 11:37 43.68261 28.31888 36119 ft 432 kts 307°
2026-05-07 11:38 43.71820 28.25204 36111 ft 434 kts 307°
2026-05-07 11:38 43.75384 28.18495 36113 ft 434 kts 307°
2026-05-07 11:39 43.78927 28.11811 36112 ft 434 kts 307°
2026-05-07 11:39 43.82477 28.05096 36103 ft 434 kts 307°
2026-05-07 11:40 43.86031 27.98360 36109 ft 433 kts 307°
2026-05-07 11:40 43.89570 27.91637 36097 ft 432 kts 307°
2026-05-07 11:41 43.93097 27.84921 36097 ft 432 kts 307°
2026-05-07 11:41 43.96625 27.78188 36095 ft 433 kts 307°
2026-05-07 11:42 44.00141 27.71461 36087 ft 433 kts 307°
2026-05-07 11:42 44.03675 27.64684 36086 ft 432 kts 307°
2026-05-07 11:43 44.07179 27.57951 36076 ft 431 kts 307°
2026-05-07 11:43 44.10688 27.51192 36078 ft 432 kts 307°
2026-05-07 11:44 44.14189 27.44431 36077 ft 432 kts 307°
2026-05-07 11:44 44.17673 27.37688 36070 ft 432 kts 307°
2026-05-07 11:45 44.21175 27.30897 36076 ft 432 kts 306°
2026-05-07 11:45 44.24662 27.24116 36072 ft 433 kts 306°
2026-05-07 11:46 44.28154 27.17310 36067 ft 431 kts 306°
2026-05-07 11:46 44.31638 27.10505 36066 ft 433 kts 306°
2026-05-07 11:47 44.35133 27.03661 36059 ft 433 kts 306°
2026-05-07 11:47 44.38612 26.96833 36061 ft 432 kts 306°
2026-05-07 11:48 44.42077 26.90016 36057 ft 432 kts 306°
2026-05-07 11:48 44.45552 26.83163 36057 ft 433 kts 306°
2026-05-07 11:49 44.49022 26.76304 36056 ft 435 kts 305°
2026-05-07 11:49 44.52506 26.69401 36054 ft 434 kts 306°
2026-05-07 11:50 44.55976 26.62509 36055 ft 434 kts 305°
2026-05-07 11:50 44.59283 26.55504 36054 ft 435 kts 298°
2026-05-07 11:50 44.60626 26.51651 36170 ft 443 kts 296°
2026-05-07 11:51 44.61933 26.47776 36718 ft 440 kts 296°
2026-05-07 11:51 44.63229 26.43914 37572 ft 435 kts 296°
2026-05-07 11:51 44.64510 26.40077 38069 ft 437 kts 295°
2026-05-07 11:52 44.67064 26.32389 38064 ft 435 kts 295°
2026-05-07 11:52 44.69609 26.24692 38068 ft 435 kts 295°
2026-05-07 11:53 44.72149 26.16977 38067 ft 435 kts 295°
2026-05-07 11:53 44.74665 26.09306 38069 ft 434 kts 294°
2026-05-07 11:54 44.77183 26.01608 38065 ft 436 kts 294°
2026-05-07 11:54 44.79716 25.93838 38060 ft 436 kts 294°
2026-05-07 11:55 44.82225 25.86117 38063 ft 437 kts 294°
2026-05-07 11:55 44.84734 25.78374 38060 ft 437 kts 294°
2026-05-07 11:56 44.87244 25.70607 38062 ft 436 kts 294°
2026-05-07 11:56 44.89748 25.62833 38065 ft 437 kts 294°
2026-05-07 11:57 44.92236 25.55089 38065 ft 437 kts 294°
2026-05-07 11:57 44.94740 25.47268 38065 ft 438 kts 294°
2026-05-07 11:58 44.97219 25.39504 38067 ft 437 kts 294°
2026-05-07 11:58 44.99720 25.31668 38063 ft 436 kts 295°
2026-05-07 11:59 45.02690 25.24219 38073 ft 438 kts 298°
2026-05-07 11:59 45.05719 25.16772 38078 ft 440 kts 298°
2026-05-07 12:00 45.08722 25.09303 38073 ft 438 kts 298°
2026-05-07 12:00 45.11735 25.01749 38068 ft 441 kts 298°
2026-05-07 12:01 45.14727 24.94210 38068 ft 440 kts 298°
2026-05-07 12:01 45.17691 24.86715 38073 ft 440 kts 297°
2026-05-07 12:02 45.20667 24.79162 38068 ft 441 kts 297°
2026-05-07 12:02 45.23635 24.71606 38072 ft 441 kts 297°
2026-05-07 12:03 45.26596 24.64045 38076 ft 441 kts 297°
2026-05-07 12:03 45.29573 24.56424 38076 ft 441 kts 297°
2026-05-07 12:04 45.32523 24.48851 38076 ft 441 kts 297°
2026-05-07 12:04 45.35478 24.41243 38080 ft 441 kts 297°
2026-05-07 12:05 45.38435 24.33608 38081 ft 442 kts 296°
2026-05-07 12:05 45.41392 24.25951 38079 ft 442 kts 296°
2026-05-07 12:06 45.44334 24.18316 38073 ft 441 kts 296°
2026-05-07 12:06 45.47288 24.10625 38077 ft 444 kts 296°
2026-05-07 12:07 45.50220 24.02968 38083 ft 445 kts 296°
2026-05-07 12:07 45.53178 23.95227 38084 ft 445 kts 296°
2026-05-07 12:08 45.56129 23.87481 38085 ft 444 kts 295°
2026-05-07 12:08 45.59076 23.79721 38085 ft 446 kts 296°
2026-05-07 12:09 45.62016 23.71958 38079 ft 446 kts 295°
2026-05-07 12:09 45.64945 23.64203 38075 ft 445 kts 295°
2026-05-07 12:10 45.67871 23.56433 38071 ft 445 kts 295°
2026-05-07 12:10 45.70808 23.48613 38068 ft 445 kts 295°
2026-05-07 12:11 45.73718 23.40842 38055 ft 446 kts 295°
2026-05-07 12:11 45.76628 23.33050 38050 ft 446 kts 295°
2026-05-07 12:12 45.79541 23.25225 38041 ft 446 kts 295°
2026-05-07 12:12 45.82467 23.17344 38040 ft 449 kts 295°
2026-05-07 12:13 45.85375 23.09492 38035 ft 448 kts 295°
2026-05-07 12:13 45.88280 23.01620 38038 ft 449 kts 294°
2026-05-07 12:14 45.91188 22.93717 38039 ft 449 kts 294°
2026-05-07 12:14 45.94073 22.85858 38048 ft 447 kts 294°
2026-05-07 12:15 45.96955 22.77981 38053 ft 447 kts 294°
2026-05-07 12:15 45.99838 22.70078 38048 ft 448 kts 295°
2026-05-07 12:16 46.02723 22.62147 38042 ft 448 kts 294°
2026-05-07 12:16 46.05591 22.54238 38043 ft 449 kts 294°
2026-05-07 12:17 46.08470 22.46277 38047 ft 448 kts 294°
2026-05-07 12:17 46.11329 22.38347 38040 ft 449 kts 294°
2026-05-07 12:18 46.14190 22.30390 38033 ft 447 kts 293°
2026-05-07 12:18 46.17056 22.22394 38031 ft 449 kts 294°
2026-05-07 12:19 46.19907 22.14416 38038 ft 447 kts 293°
2026-05-07 12:19 46.22728 22.06496 38037 ft 448 kts 294°
2026-05-07 12:20 46.25575 21.98481 38034 ft 448 kts 294°
2026-05-07 12:20 46.28405 21.90492 38030 ft 449 kts 293°
2026-05-07 12:21 46.31232 21.82486 38027 ft 450 kts 293°
2026-05-07 12:21 46.34065 21.74437 38027 ft 451 kts 293°
2026-05-07 12:22 46.36895 21.66375 38023 ft 450 kts 293°
2026-05-07 12:22 46.39701 21.58355 38028 ft 451 kts 293°
2026-05-07 12:23 46.42514 21.50291 38024 ft 450 kts 293°
2026-05-07 12:23 46.45308 21.42256 38026 ft 450 kts 293°
2026-05-07 12:24 46.48121 21.34144 38028 ft 450 kts 292°
2026-05-07 12:24 46.50924 21.26036 38028 ft 449 kts 292°
2026-05-07 12:25 46.53721 21.17919 38031 ft 451 kts 292°
2026-05-07 12:25 46.56498 21.09836 38033 ft 451 kts 292°
2026-05-07 12:26 46.59292 21.01676 38035 ft 452 kts 292°
2026-05-07 12:26 46.62059 20.93572 38031 ft 451 kts 292°
2026-05-07 12:27 46.64838 20.85409 38029 ft 451 kts 292°
2026-05-07 12:27 46.67602 20.77262 38024 ft 452 kts 292°
2026-05-07 12:28 46.70385 20.69035 38024 ft 452 kts 292°
2026-05-07 12:28 46.73142 20.60858 38024 ft 452 kts 292°
2026-05-07 12:29 46.75905 20.52636 38024 ft 452 kts 292°
2026-05-07 12:29 46.78640 20.44473 38022 ft 451 kts 292°
2026-05-07 12:30 46.81372 20.36295 38020 ft 451 kts 292°
2026-05-07 12:30 46.84103 20.28093 38017 ft 450 kts 291°
2026-05-07 12:31 46.86834 20.19865 38014 ft 450 kts 291°
2026-05-07 12:31 46.89544 20.11673 38009 ft 450 kts 291°
2026-05-07 12:32 46.92255 20.03453 38005 ft 450 kts 291°
2026-05-07 12:32 46.94967 19.95204 37995 ft 453 kts 291°
2026-05-07 12:33 46.99020 19.82826 37995 ft 452 kts 291°
2026-05-07 12:33 47.01725 19.74531 37989 ft 452 kts 291°
2026-05-07 12:34 47.04415 19.66258 37984 ft 453 kts 291°
2026-05-07 12:34 47.07116 19.57922 37987 ft 452 kts 291°
2026-05-07 12:35 47.09792 19.49636 37990 ft 452 kts 291°
2026-05-07 12:35 47.12477 19.41298 37974 ft 452 kts 290°
2026-05-07 12:36 47.15146 19.32979 37978 ft 452 kts 290°
2026-05-07 12:36 47.17808 19.24656 37976 ft 452 kts 290°
2026-05-07 12:37 47.20477 19.16285 37974 ft 452 kts 290°
2026-05-07 12:37 47.23134 19.07920 37973 ft 453 kts 290°
2026-05-07 12:38 47.25789 18.99538 37966 ft 452 kts 290°
2026-05-07 12:38 47.28427 18.91180 37960 ft 454 kts 290°
2026-05-07 12:39 47.31059 18.82818 37960 ft 453 kts 290°
2026-05-07 12:39 47.33700 18.74394 37969 ft 452 kts 290°
2026-05-07 12:40 47.36320 18.66010 37956 ft 454 kts 290°
2026-05-07 12:40 47.38955 18.57549 37966 ft 454 kts 290°
2026-05-07 12:41 47.41574 18.49113 37969 ft 455 kts 289°
2026-05-07 12:41 47.44187 18.40669 37970 ft 454 kts 289°
2026-05-07 12:42 47.46790 18.32229 37966 ft 454 kts 289°
2026-05-07 12:42 47.49397 18.23745 37973 ft 455 kts 289°
2026-05-07 12:43 47.51986 18.15290 37969 ft 453 kts 289°
2026-05-07 12:43 47.54573 18.06817 37953 ft 453 kts 289°
2026-05-07 12:44 47.57157 17.98321 37964 ft 454 kts 289°
2026-05-07 12:44 47.59745 17.89782 37965 ft 455 kts 289°
2026-05-07 12:45 47.62318 17.81265 37953 ft 456 kts 289°
2026-05-07 12:45 47.64885 17.72742 37971 ft 455 kts 289°
2026-05-07 12:46 47.67453 17.64185 37957 ft 455 kts 289°
2026-05-07 12:46 47.70010 17.55632 37952 ft 455 kts 289°
2026-05-07 12:47 47.72564 17.47060 37945 ft 457 kts 289°
2026-05-07 12:47 47.75121 17.38449 37948 ft 457 kts 289°
2026-05-07 12:48 47.77665 17.29853 37946 ft 455 kts 288°
2026-05-07 12:48 47.80200 17.21255 37954 ft 455 kts 288°
2026-05-07 12:49 47.82728 17.12650 37960 ft 457 kts 289°
2026-05-07 12:49 47.85261 17.04011 37947 ft 458 kts 289°
2026-05-07 12:50 47.87788 16.95367 37953 ft 456 kts 289°
2026-05-07 12:50 47.90308 16.86715 37956 ft 457 kts 289°
2026-05-07 12:51 47.92830 16.78020 37951 ft 458 kts 289°
2026-05-07 12:51 47.95342 16.69332 37972 ft 458 kts 289°
2026-05-07 12:52 47.97847 16.60640 37958 ft 458 kts 289°
2026-05-07 12:52 48.00356 16.51897 37957 ft 458 kts 289°
2026-05-07 12:53 48.02858 16.43153 37966 ft 458 kts 289°
2026-05-07 12:53 48.05336 16.34456 37958 ft 457 kts 288°
2026-05-07 12:54 48.07810 16.25747 37970 ft 456 kts 288°
2026-05-07 12:54 48.10280 16.17018 37962 ft 458 kts 288°
2026-05-07 12:55 48.12745 16.08271 37979 ft 458 kts 288°
2026-05-07 12:55 48.15197 15.99540 37964 ft 459 kts 288°
2026-05-07 12:56 48.17657 15.90752 37956 ft 458 kts 288°
2026-05-07 12:56 48.20118 15.81927 37954 ft 459 kts 288°
2026-05-07 12:57 48.22558 15.73141 37957 ft 458 kts 288°
2026-05-07 12:57 48.24984 15.64379 37959 ft 457 kts 288°
2026-05-07 12:58 48.27423 15.55530 37967 ft 458 kts 288°
2026-05-07 12:58 48.29837 15.46745 37956 ft 458 kts 288°
2026-05-07 12:59 48.32258 15.37900 37963 ft 460 kts 288°
2026-05-07 12:59 48.34683 15.29004 37981 ft 460 kts 288°
2026-05-07 13:00 48.37094 15.20128 37975 ft 459 kts 288°
2026-05-07 13:00 48.39487 15.11285 37970 ft 459 kts 288°
2026-05-07 13:01 48.41894 15.02358 37970 ft 460 kts 288°
2026-05-07 13:01 48.44273 14.93501 37977 ft 460 kts 288°
2026-05-07 13:02 48.46652 14.84610 37973 ft 460 kts 288°
2026-05-07 13:02 48.49044 14.75633 37974 ft 461 kts 288°
2026-05-07 13:03 48.51414 14.66707 37971 ft 460 kts 288°
2026-05-07 13:03 48.53778 14.57767 37968 ft 462 kts 288°
2026-05-07 13:04 48.56142 14.48797 37970 ft 462 kts 288°
2026-05-07 13:04 48.58487 14.39859 37964 ft 461 kts 288°
2026-05-07 13:05 48.60843 14.30848 37975 ft 462 kts 288°
2026-05-07 13:05 48.63183 14.21861 37973 ft 462 kts 288°
2026-05-07 13:06 48.65523 14.12839 37972 ft 462 kts 288°
2026-05-07 13:06 48.67865 14.03775 37973 ft 463 kts 288°
2026-05-07 13:07 48.70188 13.94746 37975 ft 463 kts 288°
2026-05-07 13:07 48.72510 13.85686 37974 ft 463 kts 288°
2026-05-07 13:08 48.74820 13.76642 37973 ft 462 kts 288°
2026-05-07 13:08 48.77107 13.67563 37973 ft 461 kts 287°
2026-05-07 13:09 48.79287 13.58432 37972 ft 461 kts 287°
2026-05-07 13:09 48.81459 13.49307 37972 ft 461 kts 287°
2026-05-07 13:10 48.83617 13.40215 37970 ft 462 kts 287°
2026-05-07 13:10 48.85777 13.31085 37973 ft 463 kts 287°
2026-05-07 13:11 48.87954 13.21847 37980 ft 462 kts 287°
2026-05-07 13:11 48.90105 13.12683 37989 ft 463 kts 287°
2026-05-07 13:12 48.92256 13.03482 37990 ft 463 kts 287°
2026-05-07 13:12 48.94403 12.94258 37994 ft 464 kts 287°
2026-05-07 13:13 48.96536 12.85060 37992 ft 462 kts 287°
2026-05-07 13:13 48.98648 12.75910 37993 ft 461 kts 287°
2026-05-07 13:14 49.00756 12.66738 37992 ft 461 kts 287°
2026-05-07 13:14 49.02876 12.57475 37988 ft 462 kts 287°
2026-05-07 13:15 49.04970 12.48284 37990 ft 463 kts 287°
2026-05-07 13:15 49.07077 12.38994 37989 ft 464 kts 287°
2026-05-07 13:16 49.09160 12.29773 37992 ft 463 kts 286°
2026-05-07 13:16 49.11239 12.20528 37988 ft 463 kts 286°
2026-05-07 13:17 49.13322 12.11229 37986 ft 462 kts 286°
2026-05-07 13:17 49.15373 12.02024 37990 ft 461 kts 286°
2026-05-07 13:18 49.17436 11.92730 37994 ft 462 kts 287°
2026-05-07 13:18 49.19472 11.83515 38002 ft 462 kts 287°
2026-05-07 13:19 49.21527 11.74172 37998 ft 463 kts 287°
2026-05-07 13:19 49.23559 11.64893 37998 ft 463 kts 287°
2026-05-07 13:20 49.25583 11.55609 37987 ft 462 kts 287°
2026-05-07 13:20 49.27616 11.46238 37980 ft 463 kts 287°
2026-05-07 13:21 49.29616 11.36981 37988 ft 462 kts 287°
2026-05-07 13:21 49.31625 11.27639 37995 ft 462 kts 286°
2026-05-07 13:22 49.33613 11.18353 38000 ft 461 kts 286°
2026-05-07 13:22 49.35607 11.08998 38004 ft 461 kts 286°
2026-05-07 13:23 49.37580 10.99693 38010 ft 462 kts 286°
2026-05-07 13:23 49.39863 10.90541 38017 ft 464 kts 295°
2026-05-07 13:24 49.42767 10.81680 38020 ft 463 kts 295°
2026-05-07 13:24 49.45633 10.72897 38019 ft 463 kts 295°
2026-05-07 13:25 49.48506 10.64032 38019 ft 463 kts 295°
2026-05-07 13:25 49.51356 10.55189 38020 ft 463 kts 295°
2026-05-07 13:26 49.54200 10.46327 38022 ft 464 kts 295°
2026-05-07 13:26 49.57052 10.37401 38027 ft 464 kts 295°
2026-05-07 13:27 49.59870 10.28548 38032 ft 463 kts 294°
2026-05-07 13:27 49.62685 10.19674 38022 ft 463 kts 294°
2026-05-07 13:28 49.65492 10.10793 38019 ft 462 kts 294°
2026-05-07 13:28 49.68298 10.01881 38025 ft 461 kts 294°
2026-05-07 13:29 49.71081 9.93011 38020 ft 462 kts 294°
2026-05-07 13:29 49.73886 9.84039 38018 ft 462 kts 294°
2026-05-07 13:30 49.76655 9.75147 38022 ft 462 kts 294°
2026-05-07 13:30 49.79441 9.66172 38019 ft 463 kts 294°
2026-05-07 13:31 49.82223 9.57173 38020 ft 470 kts 294°
2026-05-07 13:31 49.85057 9.47973 38018 ft 475 kts 294°
2026-05-07 13:32 49.87881 9.38775 38024 ft 474 kts 294°
2026-05-07 13:32 49.90689 9.29593 38026 ft 473 kts 294°
2026-05-07 13:33 49.93468 9.20470 38030 ft 474 kts 294°
2026-05-07 13:33 49.96208 9.11443 38027 ft 475 kts 294°
2026-05-07 13:34 50.00331 8.97797 38033 ft 473 kts 294°
2026-05-07 13:35 50.03062 8.88716 38027 ft 474 kts 294°
2026-05-07 13:35 50.05396 8.80882 38027 ft 473 kts 291°
2026-05-07 13:36 50.07743 8.71264 38031 ft 474 kts 289°
2026-05-07 13:36 50.10010 8.61675 38036 ft 474 kts 289°
2026-05-07 13:37 50.12223 8.52270 38041 ft 475 kts 289°
2026-05-07 13:37 50.14451 8.42766 38040 ft 474 kts 289°
2026-05-07 13:38 50.16652 8.33327 38034 ft 475 kts 289°
2026-05-07 13:38 50.18906 8.23618 38032 ft 474 kts 289°
2026-05-07 13:39 50.21122 8.14035 38028 ft 475 kts 289°
2026-05-07 13:39 50.23332 8.04429 38024 ft 475 kts 289°
2026-05-07 13:40 50.25540 7.94791 38025 ft 475 kts 289°
2026-05-07 13:40 50.27748 7.85107 38022 ft 474 kts 289°
2026-05-07 13:41 50.29958 7.75371 38020 ft 474 kts 289°
2026-05-07 13:41 50.32142 7.65707 38015 ft 474 kts 289°
2026-05-07 13:42 50.34323 7.56008 38013 ft 474 kts 289°
2026-05-07 13:42 50.36502 7.46277 38012 ft 474 kts 289°
2026-05-07 13:43 50.38671 7.36543 38015 ft 475 kts 289°
2026-05-07 13:43 50.40774 7.27062 38018 ft 474 kts 288°
2026-05-07 13:44 50.42912 7.17379 38018 ft 473 kts 288°
2026-05-07 13:44 50.45054 7.07629 38017 ft 473 kts 288°
2026-05-07 13:45 50.47184 6.97890 38011 ft 473 kts 288°
2026-05-07 13:45 50.49305 6.88150 38012 ft 473 kts 288°
2026-05-07 13:46 50.51374 6.78388 38014 ft 472 kts 285°
2026-05-07 13:46 50.53102 6.68464 38019 ft 472 kts 284°
2026-05-07 13:47 50.54785 6.58740 38019 ft 473 kts 285°
2026-05-07 13:47 50.56513 6.48779 38016 ft 473 kts 285°
2026-05-07 13:48 50.58214 6.38953 38015 ft 473 kts 285°
2026-05-07 13:48 50.59776 6.29902 38016 ft 472 kts 284°
2026-05-07 13:49 50.61531 6.19687 38018 ft 471 kts 284°
2026-05-07 13:49 50.63222 6.09796 38013 ft 471 kts 284°
2026-05-07 13:50 50.64769 6.00698 38021 ft 470 kts 284°
2026-05-07 13:50 50.66513 5.90393 38023 ft 471 kts 284°
2026-05-07 13:51 50.68132 5.80767 38029 ft 472 kts 284°
2026-05-07 13:51 50.69761 5.71024 38030 ft 471 kts 284°
2026-05-07 13:52 50.71423 5.61031 38031 ft 472 kts 284°
2026-05-07 13:52 50.73064 5.51104 38036 ft 471 kts 284°
2026-05-07 13:53 50.74717 5.41052 38033 ft 470 kts 284°
2026-05-07 13:53 50.76304 5.31336 38036 ft 471 kts 283°
2026-05-07 13:54 50.79337 5.12616 38027 ft 471 kts 283°
2026-05-07 13:55 50.81284 5.02444 38021 ft 472 kts 293°
2026-05-07 13:55 50.84188 4.93187 38029 ft 473 kts 296°
2026-05-07 13:56 50.87116 4.84013 38028 ft 473 kts 295°
2026-05-07 13:56 50.89974 4.74991 38035 ft 473 kts 295°
2026-05-07 13:57 50.92883 4.65754 38046 ft 474 kts 295°
2026-05-07 13:57 50.95718 4.56708 38048 ft 474 kts 295°
2026-05-07 13:58 50.98530 4.47694 38051 ft 473 kts 295°
2026-05-07 13:58 51.01432 4.38354 38052 ft 473 kts 295°
2026-05-07 13:59 51.03910 4.30351 38057 ft 474 kts 295°
2026-05-07 13:59 51.06584 4.21686 38059 ft 473 kts 295°
2026-05-07 14:00 51.09707 4.11524 38060 ft 473 kts 295°
2026-05-07 14:01 51.15166 3.93657 38059 ft 475 kts 295°
2026-05-07 14:01 51.17787 3.85031 38056 ft 474 kts 295°
2026-05-07 14:02 51.20786 3.75126 38055 ft 474 kts 295°
2026-05-07 14:02 51.23098 3.67458 38057 ft 474 kts 295°
2026-05-07 14:03 51.26268 3.58187 38059 ft 475 kts 300°
2026-05-07 14:03 51.30248 3.47665 38059 ft 475 kts 300°
2026-05-07 14:04 51.33080 3.40080 38060 ft 475 kts 300°
2026-05-07 14:04 51.36269 3.29305 38064 ft 475 kts 290°
2026-05-07 14:05 51.38625 3.19406 38065 ft 475 kts 289°
2026-05-07 14:05 51.40940 3.09604 38064 ft 475 kts 289°
2026-05-07 14:06 51.43279 2.99665 38066 ft 475 kts 289°
2026-05-07 14:06 51.45197 2.91483 38066 ft 475 kts 289°
2026-05-07 14:07 51.47897 2.79906 38066 ft 474 kts 289°
2026-05-07 14:07 51.50188 2.70034 38068 ft 474 kts 289°
2026-05-07 14:08 51.52473 2.60138 38067 ft 475 kts 289°
2026-05-07 14:08 51.54719 2.50373 37452 ft 462 kts 289°
2026-05-07 14:08 51.55448 2.47190 36933 ft 462 kts 289°
2026-05-07 14:09 51.56551 2.42365 36162 ft 461 kts 289°
2026-05-07 14:09 51.57639 2.37592 35389 ft 459 kts 289°
2026-05-07 14:09 51.58866 2.32203 34434 ft 470 kts 289°
2026-05-07 14:09 51.60222 2.26242 33280 ft 483 kts 289°
2026-05-07 14:10 51.60941 2.23076 32708 ft 481 kts 289°
2026-05-07 14:10 51.62118 2.17884 31789 ft 483 kts 289°
2026-05-07 14:10 51.63639 2.11158 30601 ft 486 kts 289°
2026-05-07 14:10 51.64777 2.06106 30070 ft 477 kts 289°
2026-05-07 14:11 51.65533 2.02736 29753 ft 477 kts 289°
2026-05-07 14:11 51.66647 1.97759 29230 ft 475 kts 289°
2026-05-07 14:11 51.67764 1.92762 28664 ft 470 kts 289°
2026-05-07 14:11 51.69216 1.86242 27926 ft 464 kts 289°
2026-05-07 14:12 51.70294 1.81392 27367 ft 460 kts 289°
2026-05-07 14:12 51.71004 1.78189 26994 ft 457 kts 289°
2026-05-07 14:12 51.72074 1.73358 26433 ft 452 kts 289°
2026-05-07 14:12 51.73454 1.67060 25681 ft 446 kts 287°
2026-05-07 14:13 51.73974 1.63881 25310 ft 442 kts 281°
2026-05-07 14:13 51.74361 1.57357 24523 ft 436 kts 269°
2026-05-07 14:13 51.74248 1.54121 24066 ft 432 kts 265°
2026-05-07 14:13 51.73969 1.49367 23413 ft 428 kts 264°
2026-05-07 14:14 51.73677 1.44670 22773 ft 424 kts 264°
2026-05-07 14:14 51.73377 1.39931 22133 ft 421 kts 264°
2026-05-07 14:14 51.73079 1.35284 21501 ft 417 kts 264°
2026-05-07 14:14 51.72783 1.30716 20877 ft 414 kts 263°
2026-05-07 14:15 51.72380 1.24572 20047 ft 409 kts 263°
2026-05-07 14:15 51.72181 1.21558 19637 ft 407 kts 263°
2026-05-07 14:15 51.71783 1.15600 18829 ft 402 kts 263°
2026-05-07 14:15 51.71484 1.11148 18215 ft 399 kts 263°
2026-05-07 14:16 51.71284 1.08175 17817 ft 397 kts 263°
2026-05-07 14:16 51.70985 1.03770 17222 ft 395 kts 263°
2026-05-07 14:16 51.70683 0.99360 16617 ft 392 kts 263°
2026-05-07 14:16 51.70387 0.95043 16035 ft 389 kts 263°
2026-05-07 14:17 51.70087 0.90706 15509 ft 386 kts 263°
2026-05-07 14:17 51.69791 0.86450 15059 ft 384 kts 263°
2026-05-07 14:17 51.69393 0.80755 14428 ft 381 kts 263°
2026-05-07 14:17 51.69097 0.76552 13961 ft 379 kts 263°
2026-05-07 14:18 51.68799 0.72337 13491 ft 376 kts 263°
2026-05-07 14:18 51.68507 0.68232 13028 ft 374 kts 263°
2026-05-07 14:18 51.68310 0.65468 12708 ft 367 kts 263°
2026-05-07 14:18 51.68024 0.61476 12263 ft 355 kts 263°
2026-05-07 14:19 51.67653 0.56329 11687 ft 342 kts 263°
2026-05-07 14:19 51.67471 0.53813 11404 ft 336 kts 263°
2026-05-07 14:19 51.67205 0.50148 10924 ft 322 kts 263°
2026-05-07 14:19 51.66867 0.45519 10454 ft 299 kts 263°
2026-05-07 14:20 51.66708 0.43357 10217 ft 290 kts 263°
2026-05-07 14:20 51.66477 0.40222 9863 ft 280 kts 263°
2026-05-07 14:20 51.66251 0.37164 9565 ft 274 kts 263°
2026-05-07 14:20 51.66027 0.34138 9193 ft 273 kts 262°
2026-05-07 14:21 51.65817 0.31316 8819 ft 266 kts 262°
2026-05-07 14:21 51.65625 0.28745 8563 ft 257 kts 262°
2026-05-07 14:21 51.65400 0.25737 8275 ft 249 kts 262°
2026-05-07 14:21 51.65192 0.22973 7940 ft 250 kts 262°
2026-05-07 14:22 51.64916 0.19323 7509 ft 250 kts 262°
2026-05-07 14:22 51.64788 0.17627 7310 ft 250 kts 262°
2026-05-07 14:22 51.64581 0.14886 7070 ft 245 kts 262°
2026-05-07 14:22 51.64422 0.12165 7042 ft 242 kts 264°
2026-05-07 14:23 51.64286 0.09479 7049 ft 241 kts 264°
2026-05-07 14:23 51.64146 0.06863 7040 ft 241 kts 263°
2026-05-07 14:23 51.63999 0.04195 7048 ft 242 kts 263°
2026-05-07 14:23 51.63850 0.01500 7043 ft 242 kts 263°
2026-05-07 14:24 51.63699 -0.01205 7045 ft 243 kts 263°
2026-05-07 14:24 51.63550 -0.03866 7049 ft 243 kts 263°
2026-05-07 14:24 51.63405 -0.06450 7043 ft 243 kts 263°
2026-05-07 14:24 51.63252 -0.09159 7042 ft 243 kts 264°
2026-05-07 14:25 51.63098 -0.11873 7038 ft 246 kts 264°
2026-05-07 14:25 51.62943 -0.14600 6996 ft 245 kts 264°
2026-05-07 14:25 51.62790 -0.17277 6990 ft 244 kts 264°
2026-05-07 14:25 51.62639 -0.19919 6983 ft 241 kts 263°
2026-05-07 14:26 51.62484 -0.22611 6994 ft 244 kts 263°
2026-05-07 14:26 51.62328 -0.25302 6991 ft 243 kts 263°
2026-05-07 14:26 51.62172 -0.27983 6984 ft 242 kts 264°
2026-05-07 14:26 51.62018 -0.30630 6981 ft 240 kts 264°
2026-05-07 14:27 51.61862 -0.33296 6987 ft 240 kts 264°
2026-05-07 14:27 51.61705 -0.35972 6990 ft 242 kts 264°
2026-05-07 14:27 51.61549 -0.38607 6988 ft 244 kts 264°
2026-05-07 14:27 51.61389 -0.41310 6991 ft 244 kts 264°
2026-05-07 14:28 51.61226 -0.44051 6992 ft 245 kts 265°
2026-05-07 14:28 51.61067 -0.46713 6986 ft 238 kts 265°
2026-05-07 14:28 51.60909 -0.49378 6988 ft 240 kts 264°
2026-05-07 14:28 51.60746 -0.52063 6988 ft 243 kts 265°
2026-05-07 14:29 51.60584 -0.54753 6989 ft 243 kts 265°
2026-05-07 14:29 51.60418 -0.57484 6987 ft 242 kts 265°
2026-05-07 14:29 51.60257 -0.60139 6989 ft 241 kts 265°
2026-05-07 14:29 51.60093 -0.62826 6989 ft 240 kts 265°
2026-05-07 14:30 51.59935 -0.65417 6988 ft 239 kts 264°
2026-05-07 14:30 51.59804 -0.67530 6816 ft 240 kts 264°
2026-05-07 14:30 51.59612 -0.70649 6487 ft 238 kts 264°
2026-05-07 14:30 51.59452 -0.73215 6250 ft 235 kts 264°
2026-05-07 14:31 51.59290 -0.75819 6025 ft 235 kts 263°
2026-05-07 14:31 51.58825 -0.78292 5759 ft 236 kts 238°
2026-05-07 14:31 51.57707 -0.80077 5463 ft 237 kts 209°
2026-05-07 14:31 51.56132 -0.80800 5088 ft 240 kts 179°
2026-05-07 14:32 51.54504 -0.80214 4691 ft 242 kts 159°
2026-05-07 14:32 51.52894 -0.79568 4397 ft 241 kts 172°
2026-05-07 14:32 51.51268 -0.79358 4168 ft 238 kts 176°
2026-05-07 14:32 51.49638 -0.78943 3885 ft 236 kts 155°
2026-05-07 14:33 51.48363 -0.77372 3576 ft 233 kts 125°
2026-05-07 14:33 51.47755 -0.74991 3226 ft 234 kts 98°
2026-05-07 14:33 51.47652 -0.72379 2906 ft 228 kts 91°
2026-05-07 14:33 51.47652 -0.69914 2684 ft 219 kts 90°
2026-05-07 14:34 51.47665 -0.67568 2488 ft 204 kts 89°
2026-05-07 14:34 51.47684 -0.65356 2215 ft 189 kts 89°
2026-05-07 14:34 51.47693 -0.63351 1994 ft 173 kts 90°
2026-05-07 14:34 51.47697 -0.61484 1761 ft 166 kts 90°
2026-05-07 14:35 51.47705 -0.59703 1538 ft 152 kts 90°
2026-05-07 14:35 51.47711 -0.58099 1334 ft 144 kts 90°
2026-05-07 14:35 51.47717 -0.56710 1158 ft 141 kts 90°
2026-05-07 14:35 51.47723 -0.55265 974 ft 140 kts 90°
2026-05-07 14:36 51.47731 -0.53520 752 ft 139 kts 90°
2026-05-07 14:36 51.47734 -0.52004 559 ft 138 kts 90°
2026-05-07 14:36 51.47742 -0.50494 369 ft 139 kts 89°
2026-05-07 14:36 51.47748 -0.48967 178 ft 137 kts 90°
2026-05-07 14:37 51.47752 -0.47475 95 ft 121 kts 89°
2026-05-07 14:37 51.47761 -0.45770 94 ft 26 kts 90°
2026-05-07 14:37 51.47754 -0.45556 94 ft 17 kts 107°
2026-05-07 14:38 51.47668 -0.45471 94 ft 0 kts 175°
2026-05-07 14:38 51.47667 -0.45471 94 ft 1 kts 175°
2026-05-07 14:39 51.47631 -0.45466 94 ft 7 kts 170°
2026-05-07 14:39 51.47598 -0.45373 94 ft 14 kts 94°
2026-05-07 14:39 51.47597 -0.45183 93 ft 18 kts 89°
2026-05-07 14:39 51.47597 -0.44987 93 ft 16 kts 89°
2026-05-07 14:40 51.47597 -0.44806 93 ft 15 kts 88°
2026-05-07 14:40 51.47560 -0.44681 93 ft 12 kts 155°
2026-05-07 14:40 51.47497 -0.44596 93 ft 11 kts 140°
2026-05-07 14:40 51.47424 -0.44562 92 ft 10 kts 178°
2026-05-07 14:41 51.47353 -0.44560 92 ft 9 kts 179°
2026-05-07 14:41 51.47297 -0.44555 92 ft 7 kts 162°
2026-05-07 14:41 51.47269 -0.44490 92 ft 7 kts 98°
2026-05-07 14:41 51.47266 -0.44419 92 ft 1 kts 90°
2026-05-07 14:42 51.47266 -0.44418 92 ft 0 kts 90°